Time,TemperatureF,DewpointF,PressureIn,WindDirection,WindDirectionDegrees,WindSpeedMPH,WindSpeedGustMPH,Humidity,HourlyPrecipIn,Conditions,Clouds,dailyrainin,SoftwareType,DateUTC
2013-10-16 00:00:00,60.4,55.2,30.14,North,3,0.0,0.0,83,0.00,RA,,0.00,WeatherDisplay:10.37,2013-10-16 04:00:00,
2013-10-16 00:01:00,60.4,55.2,30.14,North,3,0.0,0.0,83,0.00,RA,,0.00,WeatherDisplay:10.37,2013-10-16 04:01:00,
2013-10-16 00:02:00,59.6,54.4,30.14,North,3,0.0,0.0,83,0.00,RA,,0.00,WeatherDisplay:10.37,2013-10-16 04:02:00,
2013-10-16 00:06:00,59.8,54.6,30.14,North,3,0.0,0.0,83,0.00,RA,,0.00,WeatherDisplay:10.37,2013-10-16 04:06:00,
2013-10-16 00:08:00,59.9,54.7,30.14,North,3,0.0,0.0,83,0.00,RA,,0.00,WeatherDisplay:10.37,2013-10-16 04:08:00,
2013-10-16 00:11:00,58.9,53.7,30.14,North,3,0.0,0.0,83,0.00,CLR,,0.00,WeatherDisplay:10.37,2013-10-16 04:11:00,
2013-10-16 00:13:00,59.7,54.5,30.14,North,3,0.0,0.0,83,0.00,CLR,,0.00,WeatherDisplay:10.37,2013-10-16 04:13:00,
2013-10-16 00:16:00,59.8,55.0,30.14,North,3,0.0,0.0,84,0.00,CLR,,0.00,WeatherDisplay:10.37,2013-10-16 04:16:00,
2013-10-16 00:17:00,59.4,54.6,30.14,North,3,0.0,0.0,84,0.00,CLR,,0.00,WeatherDisplay:10.37,2013-10-16 04:17:00,
2013-10-16 00:18:00,59.7,54.9,30.14,North,3,0.0,0.0,84,0.00,CLR,,0.00,WeatherDisplay:10.37,2013-10-16 04:18:00,
2013-10-16 00:21:00,59.7,54.9,30.14,North,3,0.0,0.0,84,0.00,CLR,,0.00,WeatherDisplay:10.37,2013-10-16 04:21:00,
2013-10-16 00:22:00,59.6,54.8,30.14,North,3,0.0,0.0,84,0.00,CLR,,0.00,WeatherDisplay:10.37,2013-10-16 04:22:00,
2013-10-16 00:24:00,59.4,54.6,30.14,North,3,0.0,0.0,84,0.00,CLR,,0.00,WeatherDisplay:10.37,2013-10-16 04:24:00,
2013-10-16 00:26:00,59.6,54.8,30.14,North,3,0.0,0.0,84,0.00,CLR,,0.00,WeatherDisplay:10.37,2013-10-16 04:26:00,
2013-10-16 00:27:00,59.5,54.7,30.14,North,3,0.0,0.0,84,0.00,CLR,,0.00,WeatherDisplay:10.37,2013-10-16 04:27:00,
2013-10-16 00:28:00,59.6,54.8,30.14,North,3,0.0,0.0,84,0.00,CLR,,0.00,WeatherDisplay:10.37,2013-10-16 04:28:00,
2013-10-16 00:29:00,59.5,54.7,30.13,North,3,0.0,0.0,84,0.00,CLR,,0.00,WeatherDisplay:10.37,2013-10-16 04:29:00,
2013-10-16 00:32:00,59.7,54.9,30.13,North,3,0.0,0.0,84,0.00,CLR,,0.00,WeatherDisplay:10.37,2013-10-16 04:32:00,
2013-10-16 00:33:00,59.0,54.2,30.13,North,3,0.0,0.0,84,0.00,CLR,,0.00,WeatherDisplay:10.37,2013-10-16 04:33:00,
2013-10-16 00:34:00,58.7,53.9,30.13,North,3,0.0,0.0,84,0.00,CLR,,0.00,WeatherDisplay:10.37,2013-10-16 04:34:00,
2013-10-16 00:37:00,59.2,54.7,30.13,North,3,0.0,0.0,85,0.00,CLR,,0.00,WeatherDisplay:10.37,2013-10-16 04:37:00,
2013-10-16 00:38:00,59.1,54.6,30.13,North,3,0.0,0.0,85,0.00,CLR,,0.00,WeatherDisplay:10.37,2013-10-16 04:38:00,
2013-10-16 00:41:00,58.6,54.1,30.13,North,3,0.0,0.0,85,0.00,CLR,,0.00,WeatherDisplay:10.37,2013-10-16 04:41:00,
2013-10-16 00:42:00,58.3,53.8,30.13,North,3,0.0,0.0,85,0.00,CLR,,0.00,WeatherDisplay:10.37,2013-10-16 04:42:00,
2013-10-16 00:43:00,59.0,54.5,30.13,North,3,0.0,0.0,85,0.00,CLR,,0.00,WeatherDisplay:10.37,2013-10-16 04:43:00,
2013-10-16 00:44:00,58.9,54.4,30.13,North,3,0.0,0.0,85,0.00,CLR,,0.00,WeatherDisplay:10.37,2013-10-16 04:44:00,
2013-10-16 00:46:00,58.7,54.2,30.12,North,3,0.0,0.0,85,0.00,CLR,,0.00,WeatherDisplay:10.37,2013-10-16 04:46:00,
2013-10-16 00:47:00,57.7,53.2,30.12,North,3,0.0,0.0,85,0.00,CLR,,0.00,WeatherDisplay:10.37,2013-10-16 04:47:00,
2013-10-16 00:48:00,58.4,53.9,30.12,North,3,0.0,0.0,85,0.00,CLR,,0.00,WeatherDisplay:10.37,2013-10-16 04:48:00,
2013-10-16 00:49:00,59.0,54.5,30.12,North,3,0.0,0.0,85,0.00,CLR,,0.00,WeatherDisplay:10.37,2013-10-16 04:49:00,
2013-10-16 00:51:00,57.3,52.8,30.12,North,3,0.0,0.0,85,0.00,CLR,,0.00,WeatherDisplay:10.37,2013-10-16 04:51:00,
2013-10-16 00:52:00,58.1,53.6,30.12,North,3,0.0,0.0,85,0.00,CLR,,0.00,WeatherDisplay:10.37,2013-10-16 04:52:00,
2013-10-16 00:53:00,58.0,53.5,30.12,North,3,0.0,0.0,85,0.00,CLR,,0.00,WeatherDisplay:10.37,2013-10-16 04:53:00,
2013-10-16 00:54:00,57.2,52.7,30.12,North,3,0.0,0.0,85,0.00,CLR,,0.00,WeatherDisplay:10.37,2013-10-16 04:54:00,
2013-10-16 00:56:00,57.8,53.3,30.12,North,3,0.0,0.0,85,0.00,CLR,,0.00,WeatherDisplay:10.37,2013-10-16 04:56:00,
2013-10-16 00:57:00,57.4,53.2,30.11,North,3,0.0,0.0,86,0.00,CLR,,0.00,WeatherDisplay:10.37,2013-10-16 04:57:00,
2013-10-16 00:58:00,56.8,52.7,30.11,North,3,0.0,0.0,86,0.00,CLR,,0.00,WeatherDisplay:10.37,2013-10-16 04:58:00,
2013-10-16 00:59:00,57.5,53.3,30.11,North,3,0.0,0.0,86,0.00,CLR,,0.00,WeatherDisplay:10.37,2013-10-16 04:59:00,
2013-10-16 01:01:00,56.4,52.3,30.12,North,3,0.0,0.0,86,0.00,CLR,,0.00,WeatherDisplay:10.37,2013-10-16 05:01:00,
2013-10-16 01:03:00,56.9,52.8,30.11,North,3,0.0,0.0,86,0.00,CLR,,0.00,WeatherDisplay:10.37,2013-10-16 05:03:00,
2013-10-16 01:04:00,57.0,52.9,30.11,North,3,0.0,0.0,86,0.00,CLR,,0.00,WeatherDisplay:10.37,2013-10-16 05:04:00,
2013-10-16 01:05:00,57.1,53.0,30.11,North,3,0.0,0.0,86,0.00,CLR,,0.00,WeatherDisplay:10.37,2013-10-16 05:05:00,
2013-10-16 01:06:00,57.1,53.0,30.11,North,3,0.0,0.0,86,0.00,CLR,,0.00,WeatherDisplay:10.37,2013-10-16 05:06:00,
2013-10-16 01:08:00,55.9,51.8,30.11,North,3,0.0,0.0,86,0.00,CLR,,0.00,WeatherDisplay:10.37,2013-10-16 05:08:00,
2013-10-16 01:09:00,57.0,52.9,30.11,North,3,0.0,0.0,86,0.00,CLR,,0.00,WeatherDisplay:10.37,2013-10-16 05:09:00,
2013-10-16 01:10:00,56.3,52.2,30.11,North,3,0.0,0.0,86,0.00,CLR,,0.00,WeatherDisplay:10.37,2013-10-16 05:10:00,
2013-10-16 01:13:00,55.8,51.7,30.11,North,3,0.0,0.0,86,0.00,CLR,,0.00,WeatherDisplay:10.37,2013-10-16 05:13:00,
2013-10-16 01:14:00,56.3,52.2,30.11,North,3,0.0,0.0,86,0.00,CLR,,0.00,WeatherDisplay:10.37,2013-10-16 05:14:00,
2013-10-16 01:16:00,55.9,51.8,30.11,North,3,0.0,0.0,86,0.00,CLR,,0.00,WeatherDisplay:10.37,2013-10-16 05:16:00,
2013-10-16 01:18:00,56.3,52.2,30.11,North,3,0.0,0.0,86,0.00,CLR,,0.00,WeatherDisplay:10.37,2013-10-16 05:18:00,
2013-10-16 01:19:00,56.3,52.2,30.11,North,3,0.0,0.0,86,0.00,CLR,,0.00,WeatherDisplay:10.37,2013-10-16 05:19:00,
2013-10-16 01:21:00,55.3,51.2,30.11,North,3,0.0,0.0,86,0.00,CLR,,0.00,WeatherDisplay:10.37,2013-10-16 05:21:00,
2013-10-16 01:24:00,55.4,51.3,30.11,North,3,0.0,0.0,86,0.00,CLR,,0.00,WeatherDisplay:10.37,2013-10-16 05:24:00,
2013-10-16 01:25:00,56.7,52.6,30.11,North,3,0.0,0.0,86,0.00,CLR,,0.00,WeatherDisplay:10.37,2013-10-16 05:25:00,
2013-10-16 01:26:00,56.2,52.1,30.12,North,3,0.0,0.0,86,0.00,CLR,,0.00,WeatherDisplay:10.37,2013-10-16 05:26:00,
2013-10-16 01:29:00,55.0,50.9,30.12,North,3,0.0,0.0,86,0.00,CLR,,0.00,WeatherDisplay:10.37,2013-10-16 05:29:00,
2013-10-16 01:30:00,55.9,51.8,30.12,North,3,0.0,0.0,86,0.00,CLR,,0.00,WeatherDisplay:10.37,2013-10-16 05:30:00,
2013-10-16 01:31:00,55.2,51.1,30.12,North,3,0.0,0.0,86,0.00,CLR,,0.00,WeatherDisplay:10.37,2013-10-16 05:31:00,
2013-10-16 01:34:00,55.5,51.7,30.12,North,3,0.0,0.0,87,0.00,CLR,,0.00,WeatherDisplay:10.37,2013-10-16 05:34:00,
2013-10-16 01:35:00,55.0,51.2,30.12,North,3,0.0,0.0,87,0.00,CLR,,0.00,WeatherDisplay:10.37,2013-10-16 05:35:00,
2013-10-16 01:36:00,54.3,50.5,30.12,North,3,0.0,0.0,87,0.00,CLR,,0.00,WeatherDisplay:10.37,2013-10-16 05:36:00,
2013-10-16 01:39:00,54.1,50.6,30.12,North,3,0.0,0.0,88,0.00,CLR,,0.00,WeatherDisplay:10.37,2013-10-16 05:39:00,
2013-10-16 01:40:00,54.1,50.6,30.12,North,3,0.0,0.0,88,0.00,CLR,,0.00,WeatherDisplay:10.37,2013-10-16 05:40:00,
2013-10-16 01:42:00,54.7,51.2,30.12,North,3,0.0,0.0,88,0.00,CLR,,0.00,WeatherDisplay:10.37,2013-10-16 05:42:00,
2013-10-16 01:44:00,54.9,51.4,30.12,North,3,0.0,0.0,88,0.00,CLR,,0.00,WeatherDisplay:10.37,2013-10-16 05:44:00,
2013-10-16 01:45:00,55.0,51.5,30.13,North,3,0.0,0.0,88,0.00,CLR,,0.00,WeatherDisplay:10.37,2013-10-16 05:45:00,
2013-10-16 01:46:00,53.8,50.3,30.13,North,3,0.0,0.0,88,0.00,CLR,,0.00,WeatherDisplay:10.37,2013-10-16 05:46:00,
2013-10-16 01:47:00,53.9,50.4,30.13,North,3,0.0,0.0,88,0.00,CLR,,0.00,WeatherDisplay:10.37,2013-10-16 05:47:00,
2013-10-16 01:49:00,54.6,51.1,30.13,North,3,0.0,0.0,88,0.00,CLR,,0.00,WeatherDisplay:10.37,2013-10-16 05:49:00,
2013-10-16 01:50:00,54.5,51.0,30.13,North,3,0.0,0.0,88,0.00,CLR,,0.00,WeatherDisplay:10.37,2013-10-16 05:50:00,
2013-10-16 01:51:00,55.1,51.6,30.13,North,3,0.0,0.0,88,0.00,CLR,,0.00,WeatherDisplay:10.37,2013-10-16 05:51:00,
2013-10-16 01:52:00,55.0,51.5,30.13,North,3,0.0,0.0,88,0.00,CLR,,0.00,WeatherDisplay:10.37,2013-10-16 05:52:00,
2013-10-16 01:54:00,54.1,50.6,30.13,North,3,0.0,0.0,88,0.00,CLR,,0.00,WeatherDisplay:10.37,2013-10-16 05:54:00,
2013-10-16 01:55:00,54.0,50.8,30.13,North,3,0.0,0.0,89,0.00,CLR,,0.00,WeatherDisplay:10.37,2013-10-16 05:55:00,
2013-10-16 01:56:00,54.4,51.2,30.13,North,3,0.0,0.0,89,0.00,CLR,,0.00,WeatherDisplay:10.37,2013-10-16 05:56:00,
2013-10-16 01:57:00,54.3,51.1,30.13,North,3,0.0,0.0,89,0.00,CLR,,0.00,WeatherDisplay:10.37,2013-10-16 05:57:00,
2013-10-16 01:59:00,55.4,52.2,30.13,North,3,0.0,0.0,89,0.00,CLR,,0.00,WeatherDisplay:10.37,2013-10-16 05:59:00,
2013-10-16 02:00:00,55.4,52.2,30.13,North,3,0.0,0.0,89,0.00,CLR,,0.00,WeatherDisplay:10.37,2013-10-16 06:00:00,
2013-10-16 02:01:00,55.1,51.9,30.13,North,3,0.0,0.0,89,0.00,CLR,,0.00,WeatherDisplay:10.37,2013-10-16 06:01:00,
2013-10-16 02:03:00,54.5,51.3,30.13,North,3,0.0,0.0,89,0.00,CLR,,0.00,WeatherDisplay:10.37,2013-10-16 06:03:00,
2013-10-16 02:05:00,55.7,52.5,30.13,North,3,0.0,0.0,89,0.00,CLR,,0.00,WeatherDisplay:10.37,2013-10-16 06:05:00,
2013-10-16 02:07:00,55.6,52.4,30.13,North,3,0.0,0.0,89,0.00,CLR,,0.00,WeatherDisplay:10.37,2013-10-16 06:07:00,
2013-10-16 02:08:00,55.6,52.4,30.13,North,3,0.0,0.0,89,0.00,CLR,,0.00,WeatherDisplay:10.37,2013-10-16 06:08:00,
2013-10-16 02:10:00,56.0,52.8,30.13,North,3,0.0,0.0,89,0.00,CLR,,0.00,WeatherDisplay:10.37,2013-10-16 06:10:00,
2013-10-16 02:13:00,55.3,52.1,30.13,North,3,0.0,0.0,89,0.00,CLR,,0.00,WeatherDisplay:10.37,2013-10-16 06:13:00,
2013-10-16 02:14:00,56.0,52.8,30.13,North,3,0.0,0.0,89,0.00,CLR,,0.00,WeatherDisplay:10.37,2013-10-16 06:14:00,
2013-10-16 02:15:00,56.5,53.3,30.13,North,3,0.0,0.0,89,0.00,CLR,,0.00,WeatherDisplay:10.37,2013-10-16 06:15:00,
2013-10-16 02:18:00,56.2,53.0,30.13,North,3,0.0,0.0,89,0.00,CLR,,0.00,WeatherDisplay:10.37,2013-10-16 06:18:00,
2013-10-16 02:19:00,56.3,53.1,30.13,North,3,0.0,0.0,89,0.00,CLR,,0.00,WeatherDisplay:10.37,2013-10-16 06:19:00,
2013-10-16 02:20:00,56.6,53.4,30.13,North,3,0.0,0.0,89,0.00,CLR,,0.00,WeatherDisplay:10.37,2013-10-16 06:20:00,
2013-10-16 02:23:00,57.2,54.0,30.12,North,3,0.0,0.0,89,0.00,CLR,,0.00,WeatherDisplay:10.37,2013-10-16 06:23:00,
2013-10-16 02:24:00,57.1,53.9,30.12,North,3,0.0,0.0,89,0.00,CLR,,0.00,WeatherDisplay:10.37,2013-10-16 06:24:00,
2013-10-16 02:25:00,56.6,53.4,30.12,North,3,0.0,0.0,89,0.00,CLR,,0.00,WeatherDisplay:10.37,2013-10-16 06:25:00,
2013-10-16 02:28:00,57.3,54.1,30.12,North,3,0.0,0.0,89,0.00,CLR,,0.00,WeatherDisplay:10.37,2013-10-16 06:28:00,
2013-10-16 02:29:00,57.7,54.5,30.12,North,3,0.0,0.0,89,0.00,CLR,,0.00,WeatherDisplay:10.37,2013-10-16 06:29:00,
2013-10-16 02:30:00,57.0,53.8,30.13,North,3,0.0,0.0,89,0.00,CLR,,0.00,WeatherDisplay:10.37,2013-10-16 06:30:00,
2013-10-16 02:33:00,57.9,55.0,30.12,North,3,0.0,0.0,90,0.00,CLR,,0.00,WeatherDisplay:10.37,2013-10-16 06:33:00,
2013-10-16 02:34:00,58.3,55.4,30.12,North,3,0.0,0.0,90,0.00,CLR,,0.00,WeatherDisplay:10.37,2013-10-16 06:34:00,
2013-10-16 02:35:00,57.3,54.4,30.12,North,3,0.0,0.0,90,0.00,CLR,,0.00,WeatherDisplay:10.37,2013-10-16 06:35:00,
2013-10-16 02:36:00,57.6,54.7,30.12,North,3,0.0,0.0,90,0.00,CLR,,0.00,WeatherDisplay:10.37,2013-10-16 06:36:00,
2013-10-16 02:38:00,58.5,55.6,30.12,North,3,0.0,0.0,90,0.00,CLR,,0.00,WeatherDisplay:10.37,2013-10-16 06:38:00,
2013-10-16 02:40:00,57.2,54.3,30.12,North,3,0.0,0.0,90,0.00,CLR,,0.00,WeatherDisplay:10.37,2013-10-16 06:40:00,
2013-10-16 02:41:00,58.0,55.1,30.12,North,3,0.0,0.0,90,0.00,CLR,,0.00,WeatherDisplay:10.37,2013-10-16 06:41:00,
2013-10-16 02:43:00,57.6,54.7,30.12,North,3,0.0,0.0,90,0.00,CLR,,0.00,WeatherDisplay:10.37,2013-10-16 06:43:00,
2013-10-16 02:45:00,57.6,54.7,30.12,North,3,0.0,0.0,90,0.00,CLR,,0.00,WeatherDisplay:10.37,2013-10-16 06:45:00,
2013-10-16 02:46:00,57.7,54.8,30.12,North,3,0.0,0.0,90,0.00,CLR,,0.00,WeatherDisplay:10.37,2013-10-16 06:46:00,
2013-10-16 02:48:00,57.2,54.0,30.12,North,3,0.0,0.0,89,0.00,CLR,,0.00,WeatherDisplay:10.37,2013-10-16 06:48:00,
2013-10-16 02:50:00,58.1,55.2,30.12,North,3,0.0,0.0,90,0.00,CLR,,0.00,WeatherDisplay:10.37,2013-10-16 06:50:00,
2013-10-16 02:51:00,58.9,56.0,30.12,North,3,0.0,0.0,90,0.00,CLR,,0.00,WeatherDisplay:10.37,2013-10-16 06:51:00,
2013-10-16 02:54:00,58.2,55.3,30.12,North,3,0.0,0.0,90,0.00,CLR,,0.00,WeatherDisplay:10.37,2013-10-16 06:54:00,
2013-10-16 02:55:00,58.9,56.0,30.12,North,3,0.0,0.0,90,0.00,CLR,,0.00,WeatherDisplay:10.37,2013-10-16 06:55:00,
2013-10-16 02:56:00,58.4,55.5,30.12,North,3,0.0,0.0,90,0.00,CLR,,0.00,WeatherDisplay:10.37,2013-10-16 06:56:00,
2013-10-16 02:57:00,58.3,55.1,30.12,North,3,0.0,0.0,89,0.00,CLR,,0.00,WeatherDisplay:10.37,2013-10-16 06:57:00,
2013-10-16 02:59:00,58.0,54.8,30.11,North,3,0.0,0.0,89,0.00,CLR,,0.00,WeatherDisplay:10.37,2013-10-16 06:59:00,
2013-10-16 03:00:00,58.0,55.1,30.12,North,3,0.0,0.0,90,0.00,CLR,,0.00,WeatherDisplay:10.37,2013-10-16 07:00:00,
2013-10-16 03:01:00,57.4,54.5,30.12,North,3,0.0,0.0,90,0.00,CLR,,0.00,WeatherDisplay:10.37,2013-10-16 07:01:00,
2013-10-16 03:02:00,58.2,55.3,30.12,North,3,0.0,0.0,90,0.00,CLR,,0.00,WeatherDisplay:10.37,2013-10-16 07:02:00,
2013-10-16 03:04:00,57.0,54.1,30.11,North,3,0.0,0.0,90,0.00,CLR,,0.00,WeatherDisplay:10.37,2013-10-16 07:04:00,
2013-10-16 03:06:00,57.0,54.1,30.11,North,3,0.0,0.0,90,0.00,CLR,,0.00,WeatherDisplay:10.37,2013-10-16 07:06:00,
2013-10-16 03:07:00,57.1,54.2,30.11,North,3,0.0,0.0,90,0.00,CLR,,0.00,WeatherDisplay:10.37,2013-10-16 07:07:00,
2013-10-16 03:09:00,57.7,54.8,30.11,North,3,0.0,0.0,90,0.00,CLR,,0.00,WeatherDisplay:10.37,2013-10-16 07:09:00,
2013-10-16 03:11:00,57.0,54.1,30.11,North,3,0.0,0.0,90,0.00,CLR,,0.00,WeatherDisplay:10.37,2013-10-16 07:11:00,
2013-10-16 03:12:00,56.5,53.6,30.11,North,3,0.0,0.0,90,0.00,CLR,,0.00,WeatherDisplay:10.37,2013-10-16 07:12:00,
2013-10-16 03:13:00,58.0,55.1,30.11,North,3,0.0,0.0,90,0.00,CLR,,0.00,WeatherDisplay:10.37,2013-10-16 07:13:00,
2013-10-16 03:14:00,56.7,53.8,30.11,North,3,0.0,0.0,90,0.00,CLR,,0.00,WeatherDisplay:10.37,2013-10-16 07:14:00,
2013-10-16 03:17:00,57.3,54.4,30.11,North,3,0.0,0.0,90,0.00,CLR,,0.00,WeatherDisplay:10.37,2013-10-16 07:17:00,
2013-10-16 03:18:00,56.9,54.0,30.11,North,3,0.0,0.0,90,0.00,CLR,,0.00,WeatherDisplay:10.37,2013-10-16 07:18:00,
2013-10-16 03:19:00,57.6,54.7,30.11,North,3,0.0,0.0,90,0.00,CLR,,0.00,WeatherDisplay:10.37,2013-10-16 07:19:00,
2013-10-16 03:22:00,56.9,54.0,30.11,North,3,0.0,0.0,90,0.00,CLR,,0.00,WeatherDisplay:10.37,2013-10-16 07:22:00,
2013-10-16 03:24:00,58.0,55.1,30.11,North,3,0.0,0.0,90,0.00,CLR,,0.00,WeatherDisplay:10.37,2013-10-16 07:24:00,
2013-10-16 03:27:00,58.2,55.3,30.11,North,3,0.0,0.0,90,0.00,CLR,,0.00,WeatherDisplay:10.37,2013-10-16 07:27:00,
2013-10-16 03:28:00,57.7,54.8,30.11,North,3,0.0,0.0,90,0.00,CLR,,0.00,WeatherDisplay:10.37,2013-10-16 07:28:00,
2013-10-16 03:29:00,57.1,54.2,30.11,North,3,0.0,0.0,90,0.00,CLR,,0.00,WeatherDisplay:10.37,2013-10-16 07:29:00,
2013-10-16 03:30:00,57.7,54.8,30.11,North,3,0.0,0.0,90,0.00,CLR,,0.00,WeatherDisplay:10.37,2013-10-16 07:30:00,
2013-10-16 03:32:00,57.6,55.0,30.11,North,3,0.0,0.0,91,0.00,CLR,,0.00,WeatherDisplay:10.37,2013-10-16 07:32:00,
2013-10-16 03:33:00,58.1,55.5,30.11,North,3,0.0,0.0,91,0.00,CLR,,0.00,WeatherDisplay:10.37,2013-10-16 07:33:00,
2013-10-16 03:34:00,57.8,55.2,30.11,North,3,0.0,0.0,91,0.00,CLR,,0.00,WeatherDisplay:10.37,2013-10-16 07:34:00,
2013-10-16 03:35:00,57.4,54.8,30.11,North,3,0.0,0.0,91,0.00,CLR,,0.00,WeatherDisplay:10.37,2013-10-16 07:35:00,
2013-10-16 03:37:00,56.5,53.6,30.10,North,3,0.0,0.0,90,0.00,CLR,,0.00,WeatherDisplay:10.37,2013-10-16 07:37:00,
2013-10-16 03:38:00,56.6,54.0,30.10,North,3,0.0,0.0,91,0.00,CLR,,0.00,WeatherDisplay:10.37,2013-10-16 07:38:00,
2013-10-16 03:39:00,57.2,54.6,30.10,North,3,0.0,0.0,91,0.00,CLR,,0.00,WeatherDisplay:10.37,2013-10-16 07:39:00,
2013-10-16 03:40:00,57.8,55.2,30.10,North,3,0.0,0.0,91,0.00,CLR,,0.00,WeatherDisplay:10.37,2013-10-16 07:40:00,
2013-10-16 03:41:00,58.2,55.6,30.10,North,3,0.0,0.0,91,0.00,CLR,,0.00,WeatherDisplay:10.37,2013-10-16 07:41:00,
2013-10-16 03:42:00,57.4,54.8,30.10,North,3,0.0,0.0,91,0.00,CLR,,0.00,WeatherDisplay:10.37,2013-10-16 07:42:00,
2013-10-16 03:43:00,57.7,55.1,30.10,North,3,0.0,0.0,91,0.00,CLR,,0.00,WeatherDisplay:10.37,2013-10-16 07:43:00,
2013-10-16 03:44:00,57.7,55.1,30.10,North,3,0.0,0.0,91,0.00,CLR,,0.00,WeatherDisplay:10.37,2013-10-16 07:44:00,
2013-10-16 03:45:00,57.9,55.3,30.10,North,3,0.0,0.0,91,0.00,CLR,,0.00,WeatherDisplay:10.37,2013-10-16 07:45:00,
2013-10-16 03:46:00,57.2,54.6,30.10,North,3,0.0,0.0,91,0.00,CLR,,0.00,WeatherDisplay:10.37,2013-10-16 07:46:00,
2013-10-16 03:47:00,57.3,54.7,30.10,North,3,0.0,0.0,91,0.00,CLR,,0.00,WeatherDisplay:10.37,2013-10-16 07:47:00,
2013-10-16 03:48:00,56.9,54.3,30.10,North,3,0.0,0.0,91,0.00,CLR,,0.00,WeatherDisplay:10.37,2013-10-16 07:48:00,
2013-10-16 03:49:00,57.6,55.0,30.09,North,3,0.0,0.0,91,0.00,CLR,,0.00,WeatherDisplay:10.37,2013-10-16 07:49:00,
2013-10-16 03:50:00,57.0,54.4,30.09,North,3,0.0,0.0,91,0.00,CLR,,0.00,WeatherDisplay:10.37,2013-10-16 07:50:00,
2013-10-16 03:52:00,57.1,54.5,30.09,North,3,0.0,0.0,91,0.00,CLR,,0.00,WeatherDisplay:10.37,2013-10-16 07:52:00,
2013-10-16 03:53:00,58.1,55.5,30.09,North,3,0.0,0.0,91,0.00,CLR,,0.00,WeatherDisplay:10.37,2013-10-16 07:53:00,
2013-10-16 03:55:00,57.6,55.0,30.08,North,3,0.0,0.0,91,0.00,CLR,,0.00,WeatherDisplay:10.37,2013-10-16 07:55:00,
2013-10-16 03:56:00,57.1,54.5,30.09,North,3,0.0,0.0,91,0.00,CLR,,0.00,WeatherDisplay:10.37,2013-10-16 07:56:00,
2013-10-16 03:57:00,57.0,54.4,30.09,North,3,0.0,0.0,91,0.00,CLR,,0.00,WeatherDisplay:10.37,2013-10-16 07:57:00,
2013-10-16 03:58:00,57.7,55.1,30.08,North,3,0.0,0.0,91,0.00,CLR,,0.00,WeatherDisplay:10.37,2013-10-16 07:58:00,
2013-10-16 04:01:00,56.9,54.3,30.09,North,3,0.0,0.0,91,0.00,CLR,,0.00,WeatherDisplay:10.37,2013-10-16 08:01:00,
2013-10-16 04:02:00,57.0,54.4,30.09,North,3,0.0,0.0,91,0.00,CLR,,0.00,WeatherDisplay:10.37,2013-10-16 08:02:00,
2013-10-16 04:03:00,58.1,55.5,30.09,North,3,0.0,0.0,91,0.00,CLR,,0.00,WeatherDisplay:10.37,2013-10-16 08:03:00,
2013-10-16 04:06:00,56.9,54.3,30.09,North,3,0.0,0.0,91,0.00,CLR,,0.00,WeatherDisplay:10.37,2013-10-16 08:06:00,
2013-10-16 04:07:00,56.5,53.9,30.09,North,3,0.0,0.0,91,0.00,CLR,,0.00,WeatherDisplay:10.37,2013-10-16 08:07:00,
2013-10-16 04:08:00,57.0,54.4,30.09,North,3,0.0,0.0,91,0.00,CLR,,0.00,WeatherDisplay:10.37,2013-10-16 08:08:00,
2013-10-16 04:11:00,56.3,53.7,30.10,North,3,0.0,0.0,91,0.00,CLR,,0.00,WeatherDisplay:10.37,2013-10-16 08:11:00,
2013-10-16 04:13:00,57.7,55.1,30.10,North,3,0.0,0.0,91,0.00,CLR,,0.00,WeatherDisplay:10.37,2013-10-16 08:13:00,
2013-10-16 04:14:00,57.5,54.9,30.10,North,3,0.0,0.0,91,0.00,CLR,,0.00,WeatherDisplay:10.37,2013-10-16 08:14:00,
2013-10-16 04:17:00,56.4,53.8,30.10,North,3,0.0,0.0,91,0.00,CLR,,0.00,WeatherDisplay:10.37,2013-10-16 08:17:00,
2013-10-16 04:18:00,58.0,55.4,30.10,North,3,0.0,0.0,91,0.00,CLR,,0.00,WeatherDisplay:10.37,2013-10-16 08:18:00,
2013-10-16 04:21:00,57.2,54.6,30.10,North,3,0.0,0.0,91,0.00,CLR,,0.00,WeatherDisplay:10.37,2013-10-16 08:21:00,
2013-10-16 04:22:00,56.3,53.7,30.10,North,3,0.0,0.0,91,0.00,CLR,,0.00,WeatherDisplay:10.37,2013-10-16 08:22:00,
2013-10-16 04:23:00,56.6,54.0,30.10,North,3,0.0,0.0,91,0.00,CLR,,0.00,WeatherDisplay:10.37,2013-10-16 08:23:00,
2013-10-16 04:24:00,57.6,55.0,30.09,North,3,0.0,0.0,91,0.00,CLR,,0.00,WeatherDisplay:10.37,2013-10-16 08:24:00,
2013-10-16 04:26:00,56.7,54.1,30.09,North,3,0.0,0.0,91,0.00,CLR,,0.00,WeatherDisplay:10.37,2013-10-16 08:26:00,
2013-10-16 04:27:00,57.3,54.7,30.10,North,3,0.0,0.0,91,0.00,CLR,,0.00,WeatherDisplay:10.37,2013-10-16 08:27:00,
2013-10-16 04:28:00,56.4,53.8,30.09,North,3,0.0,0.0,91,0.00,CLR,,0.00,WeatherDisplay:10.37,2013-10-16 08:28:00,
2013-10-16 04:29:00,56.7,54.4,30.10,North,3,0.0,0.0,92,0.00,CLR,,0.00,WeatherDisplay:10.37,2013-10-16 08:29:00,
2013-10-16 04:31:00,55.9,53.6,30.09,North,3,0.0,0.0,92,0.00,CLR,,0.00,WeatherDisplay:10.37,2013-10-16 08:31:00,
2013-10-16 04:32:00,56.8,54.5,30.10,North,3,0.0,0.0,92,0.00,CLR,,0.00,WeatherDisplay:10.37,2013-10-16 08:32:00,
2013-10-16 04:33:00,56.8,54.5,30.10,North,3,0.0,0.0,92,0.00,CLR,,0.00,WeatherDisplay:10.37,2013-10-16 08:33:00,
2013-10-16 04:34:00,57.1,54.8,30.10,North,3,0.0,0.0,92,0.00,CLR,,0.00,WeatherDisplay:10.37,2013-10-16 08:34:00,
2013-10-16 04:36:00,56.2,53.9,30.09,North,3,0.0,0.0,92,0.00,CLR,,0.00,WeatherDisplay:10.37,2013-10-16 08:36:00,
2013-10-16 04:37:00,57.5,55.2,30.10,North,3,0.0,0.0,92,0.00,CLR,,0.00,WeatherDisplay:10.37,2013-10-16 08:37:00,
2013-10-16 04:38:00,56.0,53.7,30.10,North,3,0.0,0.0,92,0.00,CLR,,0.00,WeatherDisplay:10.37,2013-10-16 08:38:00,
2013-10-16 04:39:00,56.8,54.5,30.10,North,3,0.0,0.0,92,0.00,CLR,,0.00,WeatherDisplay:10.37,2013-10-16 08:39:00,
2013-10-16 04:42:00,55.6,53.3,30.10,North,3,0.0,0.0,92,0.00,CLR,,0.00,WeatherDisplay:10.37,2013-10-16 08:42:00,
2013-10-16 04:43:00,56.8,54.5,30.10,North,3,0.0,0.0,92,0.00,CLR,,0.00,WeatherDisplay:10.37,2013-10-16 08:43:00,
2013-10-16 04:45:00,56.6,54.3,30.09,North,3,0.0,0.0,92,0.00,CLR,,0.00,WeatherDisplay:10.37,2013-10-16 08:45:00,
2013-10-16 04:47:00,57.0,54.7,30.09,North,3,0.0,0.0,92,0.00,CLR,,0.00,WeatherDisplay:10.37,2013-10-16 08:47:00,
2013-10-16 04:48:00,55.6,53.3,30.09,North,3,0.0,0.0,92,0.00,CLR,,0.00,WeatherDisplay:10.37,2013-10-16 08:48:00,
2013-10-16 04:49:00,56.4,54.1,30.09,North,3,0.0,0.0,92,0.00,CLR,,0.00,WeatherDisplay:10.37,2013-10-16 08:49:00,
2013-10-16 04:50:00,56.6,54.3,30.09,North,3,0.0,0.0,92,0.00,CLR,,0.00,WeatherDisplay:10.37,2013-10-16 08:50:00,
2013-10-16 04:53:00,56.6,54.3,30.09,North,3,0.0,0.0,92,0.00,CLR,,0.00,WeatherDisplay:10.37,2013-10-16 08:53:00,
2013-10-16 04:54:00,55.1,52.8,30.09,North,3,0.0,0.0,92,0.00,CLR,,0.00,WeatherDisplay:10.37,2013-10-16 08:54:00,
2013-10-16 04:55:00,55.5,53.2,30.09,North,3,0.0,0.0,92,0.00,CLR,,0.00,WeatherDisplay:10.37,2013-10-16 08:55:00,
2013-10-16 04:58:00,55.8,53.5,30.09,North,3,0.0,0.0,92,0.00,CLR,,0.00,WeatherDisplay:10.37,2013-10-16 08:58:00,
2013-10-16 04:59:00,55.8,53.5,30.09,North,3,0.0,0.0,92,0.00,CLR,,0.00,WeatherDisplay:10.37,2013-10-16 08:59:00,
2013-10-16 05:00:00,55.8,53.5,30.09,North,3,0.0,0.0,92,0.00,CLR,,0.00,WeatherDisplay:10.37,2013-10-16 09:00:00,
2013-10-16 05:01:00,55.7,53.4,30.09,North,3,0.0,0.0,92,0.00,CLR,,0.00,WeatherDisplay:10.37,2013-10-16 09:01:00,
2013-10-16 05:03:00,55.7,53.4,30.08,North,3,0.0,0.0,92,0.00,CLR,,0.00,WeatherDisplay:10.37,2013-10-16 09:03:00,
2013-10-16 05:04:00,55.8,53.5,30.08,North,3,0.0,0.0,92,0.00,CLR,,0.00,WeatherDisplay:10.37,2013-10-16 09:04:00,
2013-10-16 05:05:00,56.2,53.9,30.08,North,3,0.0,0.0,92,0.00,CLR,,0.00,WeatherDisplay:10.37,2013-10-16 09:05:00,
2013-10-16 05:06:00,55.8,53.5,30.08,North,3,0.0,0.0,92,0.00,CLR,,0.00,WeatherDisplay:10.37,2013-10-16 09:06:00,
2013-10-16 05:08:00,55.6,53.3,30.08,North,3,0.0,0.0,92,0.00,CLR,,0.00,WeatherDisplay:10.37,2013-10-16 09:08:00,
2013-10-16 05:10:00,55.5,53.2,30.08,North,3,0.0,0.0,92,0.00,CLR,,0.00,WeatherDisplay:10.37,2013-10-16 09:10:00,
2013-10-16 05:11:00,54.9,52.6,30.08,North,3,0.0,0.0,92,0.00,CLR,,0.00,WeatherDisplay:10.37,2013-10-16 09:11:00,
2013-10-16 05:13:00,54.7,52.1,30.08,North,3,0.0,0.0,91,0.00,CLR,,0.00,WeatherDisplay:10.37,2013-10-16 09:13:00,
2013-10-16 05:15:00,54.3,51.7,30.08,North,3,0.0,0.0,91,0.00,CLR,,0.00,WeatherDisplay:10.37,2013-10-16 09:15:00,
2013-10-16 05:16:00,54.3,51.7,30.08,North,3,0.0,0.0,91,0.00,CLR,,0.00,WeatherDisplay:10.37,2013-10-16 09:16:00,
2013-10-16 05:19:00,54.4,52.1,30.07,North,3,0.0,0.0,92,0.00,CLR,,0.00,WeatherDisplay:10.37,2013-10-16 09:19:00,
2013-10-16 05:20:00,54.7,52.4,30.07,North,3,0.0,0.0,92,0.00,CLR,,0.00,WeatherDisplay:10.37,2013-10-16 09:20:00,
2013-10-16 05:21:00,54.2,51.9,30.07,North,3,0.0,0.0,92,0.00,CLR,,0.00,WeatherDisplay:10.37,2013-10-16 09:21:00,
2013-10-16 05:24:00,54.3,52.0,30.07,North,3,0.0,0.0,92,0.00,CLR,,0.00,WeatherDisplay:10.37,2013-10-16 09:24:00,
2013-10-16 05:25:00,54.0,51.7,30.07,North,3,0.0,0.0,92,0.00,CLR,,0.00,WeatherDisplay:10.37,2013-10-16 09:25:00,
2013-10-16 05:26:00,54.0,51.7,30.07,North,3,0.0,0.0,92,0.00,CLR,,0.00,WeatherDisplay:10.37,2013-10-16 09:26:00,
2013-10-16 05:27:00,54.9,52.6,30.08,North,3,0.0,0.0,92,0.00,CLR,,0.00,WeatherDisplay:10.37,2013-10-16 09:27:00,
2013-10-16 05:29:00,53.9,51.6,30.08,North,3,0.0,0.0,92,0.00,CLR,,0.00,WeatherDisplay:10.37,2013-10-16 09:29:00,
2013-10-16 05:30:00,54.0,51.7,30.08,North,3,0.0,0.0,92,0.00,CLR,,0.00,WeatherDisplay:10.37,2013-10-16 09:30:00,
2013-10-16 05:31:00,54.6,52.3,30.08,North,3,0.0,0.0,92,0.00,CLR,,0.00,WeatherDisplay:10.37,2013-10-16 09:31:00,
2013-10-16 05:32:00,53.7,51.4,30.08,North,3,0.0,0.0,92,0.00,CLR,,0.00,WeatherDisplay:10.37,2013-10-16 09:32:00,
2013-10-16 05:35:00,54.5,52.2,30.08,North,3,0.0,0.0,92,0.00,CLR,,0.00,WeatherDisplay:10.37,2013-10-16 09:35:00,
2013-10-16 05:36:00,54.2,51.9,30.08,North,3,0.0,0.0,92,0.00,CLR,,0.00,WeatherDisplay:10.37,2013-10-16 09:36:00,
2013-10-16 05:37:00,53.1,50.8,30.08,North,3,0.0,0.0,92,0.00,CLR,,0.00,WeatherDisplay:10.37,2013-10-16 09:37:00,
2013-10-16 05:40:00,53.4,51.1,30.08,North,3,0.0,0.0,92,0.00,CLR,,0.00,WeatherDisplay:10.37,2013-10-16 09:40:00,
2013-10-16 05:41:00,54.5,52.2,30.08,North,3,0.0,0.0,92,0.00,CLR,,0.00,WeatherDisplay:10.37,2013-10-16 09:41:00,
2013-10-16 05:42:00,54.0,51.7,30.08,North,3,0.0,0.0,92,0.00,CLR,,0.00,WeatherDisplay:10.37,2013-10-16 09:42:00,
2013-10-16 05:43:00,53.9,51.6,30.08,North,3,0.0,0.0,92,0.00,CLR,,0.00,WeatherDisplay:10.37,2013-10-16 09:43:00,
2013-10-16 05:45:00,54.0,51.7,30.08,North,3,0.0,0.0,92,0.00,CLR,,0.00,WeatherDisplay:10.37,2013-10-16 09:45:00,
2013-10-16 05:46:00,54.2,51.9,30.08,North,3,0.0,0.0,92,0.00,CLR,,0.00,WeatherDisplay:10.37,2013-10-16 09:46:00,
2013-10-16 05:47:00,53.7,51.4,30.08,North,3,0.0,0.0,92,0.00,CLR,,0.00,WeatherDisplay:10.37,2013-10-16 09:47:00,
2013-10-16 05:48:00,54.8,52.5,30.08,North,3,0.0,0.0,92,0.00,CLR,,0.00,WeatherDisplay:10.37,2013-10-16 09:48:00,
2013-10-16 05:50:00,53.5,51.2,30.08,North,3,0.0,0.0,92,0.00,CLR,,0.00,WeatherDisplay:10.37,2013-10-16 09:50:00,
2013-10-16 05:51:00,53.8,51.5,30.08,North,3,0.0,0.0,92,0.00,CLR,,0.00,WeatherDisplay:10.37,2013-10-16 09:51:00,
2013-10-16 05:53:00,53.5,51.2,30.08,North,3,0.0,0.0,92,0.00,CLR,,0.00,WeatherDisplay:10.37,2013-10-16 09:53:00,
2013-10-16 05:54:00,54.5,52.2,30.08,North,3,0.0,0.0,92,0.00,CLR,,0.00,WeatherDisplay:10.37,2013-10-16 09:54:00,
2013-10-16 05:56:00,53.7,51.4,30.08,North,3,0.0,0.0,92,0.00,CLR,,0.00,WeatherDisplay:10.37,2013-10-16 09:56:00,
2013-10-16 05:57:00,53.5,51.2,30.09,North,3,0.0,0.0,92,0.00,CLR,,0.00,WeatherDisplay:10.37,2013-10-16 09:57:00,
2013-10-16 05:58:00,54.6,52.6,30.09,North,3,0.0,0.0,93,0.00,CLR,,0.00,WeatherDisplay:10.37,2013-10-16 09:58:00,
2013-10-16 05:59:00,54.0,51.7,30.09,North,3,0.0,0.0,92,0.00,CLR,,0.00,WeatherDisplay:10.37,2013-10-16 09:59:00,
2013-10-16 06:01:00,53.6,51.3,30.09,North,3,0.0,0.0,92,0.00,CLR,,0.00,WeatherDisplay:10.37,2013-10-16 10:01:00,
2013-10-16 06:02:00,54.3,52.3,30.09,North,3,0.0,0.0,93,0.00,CLR,,0.00,WeatherDisplay:10.37,2013-10-16 10:02:00,
2013-10-16 06:03:00,53.7,51.7,30.09,North,3,0.0,0.0,93,0.00,CLR,,0.00,WeatherDisplay:10.37,2013-10-16 10:03:00,
2013-10-16 06:04:00,54.2,52.2,30.09,North,3,0.0,0.0,93,0.00,CLR,,0.00,WeatherDisplay:10.37,2013-10-16 10:04:00,
2013-10-16 06:06:00,54.4,52.4,30.09,North,3,0.0,0.0,93,0.00,CLR,,0.00,WeatherDisplay:10.37,2013-10-16 10:06:00,
2013-10-16 06:07:00,53.5,51.5,30.10,North,3,0.0,0.0,93,0.00,CLR,,0.00,WeatherDisplay:10.37,2013-10-16 10:07:00,
2013-10-16 06:08:00,53.4,51.4,30.10,North,3,0.0,0.0,93,0.00,CLR,,0.00,WeatherDisplay:10.37,2013-10-16 10:08:00,
2013-10-16 06:09:00,53.2,51.2,30.10,North,3,0.0,0.0,93,0.00,CLR,,0.00,WeatherDisplay:10.37,2013-10-16 10:09:00,
2013-10-16 06:11:00,53.6,51.6,30.10,North,3,0.0,0.0,93,0.00,CLR,,0.00,WeatherDisplay:10.37,2013-10-16 10:11:00,
2013-10-16 06:12:00,53.6,51.6,30.10,North,3,0.0,0.0,93,0.00,CLR,,0.00,WeatherDisplay:10.37,2013-10-16 10:12:00,
2013-10-16 06:13:00,53.3,51.3,30.10,North,3,0.0,0.0,93,0.00,CLR,,0.00,WeatherDisplay:10.37,2013-10-16 10:13:00,
2013-10-16 06:15:00,53.3,51.3,30.10,North,3,0.0,0.0,93,0.00,CLR,,0.00,WeatherDisplay:10.37,2013-10-16 10:15:00,
2013-10-16 06:16:00,53.3,51.3,30.10,North,3,0.0,0.0,93,0.00,CLR,,0.00,WeatherDisplay:10.37,2013-10-16 10:16:00,
2013-10-16 06:17:00,53.4,51.4,30.10,North,3,0.0,0.0,93,0.00,CLR,,0.00,WeatherDisplay:10.37,2013-10-16 10:17:00,
2013-10-16 06:18:00,54.2,52.2,30.10,North,3,0.0,0.0,93,0.00,CLR,,0.00,WeatherDisplay:10.37,2013-10-16 10:18:00,
2013-10-16 06:20:00,54.1,52.1,30.10,North,3,0.0,0.0,93,0.00,CLR,,0.00,WeatherDisplay:10.37,2013-10-16 10:20:00,
2013-10-16 06:21:00,53.2,51.2,30.10,North,3,0.0,0.0,93,0.00,CLR,,0.00,WeatherDisplay:10.37,2013-10-16 10:21:00,
2013-10-16 06:22:00,53.6,51.6,30.10,North,3,0.0,0.0,93,0.00,CLR,,0.00,WeatherDisplay:10.37,2013-10-16 10:22:00,
2013-10-16 06:23:00,53.1,51.1,30.10,North,3,0.0,0.0,93,0.00,CLR,,0.00,WeatherDisplay:10.37,2013-10-16 10:23:00,
2013-10-16 06:25:00,53.8,51.8,30.10,North,3,0.0,0.0,93,0.00,CLR,,0.00,WeatherDisplay:10.37,2013-10-16 10:25:00,
2013-10-16 06:26:00,53.5,51.5,30.10,North,3,0.0,0.0,93,0.00,CLR,,0.00,WeatherDisplay:10.37,2013-10-16 10:26:00,
2013-10-16 06:27:00,53.0,51.0,30.10,North,3,0.0,0.0,93,0.00,CLR,,0.00,WeatherDisplay:10.37,2013-10-16 10:27:00,
2013-10-16 06:28:00,54.1,52.1,30.10,North,3,0.0,0.0,93,0.00,CLR,,0.00,WeatherDisplay:10.37,2013-10-16 10:28:00,
2013-10-16 06:30:00,54.0,52.0,30.10,North,3,0.0,0.0,93,0.00,CLR,,0.00,WeatherDisplay:10.37,2013-10-16 10:30:00,
2013-10-16 06:32:00,54.6,52.6,30.10,North,3,0.0,0.0,93,0.00,CLR,,0.00,WeatherDisplay:10.37,2013-10-16 10:32:00,
2013-10-16 06:33:00,53.4,51.4,30.10,North,3,0.0,0.0,93,0.00,CLR,,0.00,WeatherDisplay:10.37,2013-10-16 10:33:00,
2013-10-16 06:34:00,53.3,51.3,30.10,North,3,0.0,0.0,93,0.00,CLR,,0.00,WeatherDisplay:10.37,2013-10-16 10:34:00,
2013-10-16 06:35:00,54.0,52.0,30.10,North,3,0.0,0.0,93,0.00,CLR,,0.00,WeatherDisplay:10.37,2013-10-16 10:35:00,
2013-10-16 06:37:00,54.4,52.4,30.09,North,3,0.0,0.0,93,0.00,CLR,,0.00,WeatherDisplay:10.37,2013-10-16 10:37:00,
2013-10-16 06:38:00,54.4,52.4,30.09,North,3,0.0,0.0,93,0.00,CLR,,0.00,WeatherDisplay:10.37,2013-10-16 10:38:00,
2013-10-16 06:39:00,54.1,52.1,30.09,North,3,0.0,0.0,93,0.00,CLR,,0.00,WeatherDisplay:10.37,2013-10-16 10:39:00,
2013-10-16 06:41:00,53.9,51.9,30.09,North,3,0.0,0.0,93,0.00,CLR,,0.00,WeatherDisplay:10.37,2013-10-16 10:41:00,
2013-10-16 06:43:00,53.0,51.0,30.10,North,3,0.0,0.0,93,0.00,CLR,,0.00,WeatherDisplay:10.37,2013-10-16 10:43:00,
2013-10-16 06:44:00,53.0,51.0,30.10,North,3,0.0,0.0,93,0.00,CLR,,0.00,WeatherDisplay:10.37,2013-10-16 10:44:00,
2013-10-16 06:46:00,52.9,50.9,30.10,North,3,0.0,0.0,93,0.00,CLR,,0.00,WeatherDisplay:10.37,2013-10-16 10:46:00,
2013-10-16 06:48:00,53.7,51.7,30.10,North,3,0.0,0.0,93,0.00,CLR,,0.00,WeatherDisplay:10.37,2013-10-16 10:48:00,
2013-10-16 06:49:00,53.0,51.0,30.10,North,3,0.0,0.0,93,0.00,CLR,,0.00,WeatherDisplay:10.37,2013-10-16 10:49:00,
2013-10-16 06:50:00,53.3,51.3,30.10,North,3,0.0,0.0,93,0.00,CLR,,0.00,WeatherDisplay:10.37,2013-10-16 10:50:00,
2013-10-16 06:51:00,53.5,51.5,30.10,North,3,0.0,0.0,93,0.00,CLR,,0.00,WeatherDisplay:10.37,2013-10-16 10:51:00,
2013-10-16 06:53:00,53.2,51.2,30.10,North,3,0.0,0.0,93,0.00,CLR,,0.00,WeatherDisplay:10.37,2013-10-16 10:53:00,
2013-10-16 06:54:00,53.3,51.3,30.10,North,3,0.0,0.0,93,0.00,CLR,,0.00,WeatherDisplay:10.37,2013-10-16 10:54:00,
2013-10-16 06:55:00,54.2,52.2,30.10,North,3,0.0,0.0,93,0.00,CLR,,0.00,WeatherDisplay:10.37,2013-10-16 10:55:00,
2013-10-16 06:57:00,53.1,51.1,30.10,North,3,0.0,0.0,93,0.00,CLR,,0.00,WeatherDisplay:10.37,2013-10-16 10:57:00,
2013-10-16 06:58:00,53.3,51.3,30.10,North,3,0.0,0.0,93,0.00,CLR,,0.00,WeatherDisplay:10.37,2013-10-16 10:58:00,
2013-10-16 06:59:00,52.3,50.3,30.10,North,3,0.0,0.0,93,0.00,CLR,,0.00,WeatherDisplay:10.37,2013-10-16 10:59:00,
2013-10-16 07:00:00,52.4,50.4,30.10,North,3,0.0,0.0,93,0.00,CLR,,0.00,WeatherDisplay:10.37,2013-10-16 11:00:00,
2013-10-16 07:02:00,53.3,51.3,30.10,North,3,0.0,0.0,93,0.00,CLR,,0.00,WeatherDisplay:10.37,2013-10-16 11:02:00,
2013-10-16 07:04:00,52.3,50.3,30.10,North,3,0.0,0.0,93,0.00,CLR,,0.00,WeatherDisplay:10.37,2013-10-16 11:04:00,
2013-10-16 07:05:00,53.0,51.0,30.10,North,3,0.0,0.0,93,0.00,CLR,,0.00,WeatherDisplay:10.37,2013-10-16 11:05:00,
2013-10-16 07:08:00,53.2,51.5,30.10,North,3,0.0,0.0,94,0.00,CLR,,0.00,WeatherDisplay:10.37,2013-10-16 11:08:00,
2013-10-16 07:09:00,52.4,50.7,30.10,North,3,0.0,0.0,94,0.00,CLR,,0.00,WeatherDisplay:10.37,2013-10-16 11:09:00,
2013-10-16 07:10:00,51.9,50.2,30.10,North,3,0.0,0.0,94,0.00,CLR,,0.00,WeatherDisplay:10.37,2013-10-16 11:10:00,
2013-10-16 07:13:00,52.0,50.3,30.10,North,3,0.0,0.0,94,0.00,CLR,,0.00,WeatherDisplay:10.37,2013-10-16 11:13:00,
2013-10-16 07:14:00,53.1,51.4,30.10,North,3,0.0,0.0,94,0.00,CLR,,0.00,WeatherDisplay:10.37,2013-10-16 11:14:00,
2013-10-16 07:15:00,52.2,50.5,30.10,North,3,0.0,0.0,94,0.00,CLR,,0.00,WeatherDisplay:10.37,2013-10-16 11:15:00,
2013-10-16 07:18:00,52.1,50.4,30.10,North,3,0.0,0.0,94,0.00,CLR,,0.00,WeatherDisplay:10.37,2013-10-16 11:18:00,
2013-10-16 07:19:00,51.8,50.1,30.09,North,3,0.0,0.0,94,0.00,CLR,,0.00,WeatherDisplay:10.37,2013-10-16 11:19:00,
2013-10-16 07:20:00,52.4,50.7,30.09,North,3,0.0,0.0,94,0.00,CLR,,0.00,WeatherDisplay:10.37,2013-10-16 11:20:00,
2013-10-16 07:21:00,53.0,51.3,30.10,North,3,0.0,0.0,94,0.00,CLR,,0.00,WeatherDisplay:10.37,2013-10-16 11:21:00,
2013-10-16 07:23:00,53.5,51.8,30.09,North,3,0.0,0.0,94,0.00,CLR,,0.00,WeatherDisplay:10.37,2013-10-16 11:23:00,
2013-10-16 07:24:00,51.7,50.0,30.10,North,3,0.0,0.0,94,0.00,CLR,,0.00,WeatherDisplay:10.37,2013-10-16 11:24:00,
2013-10-16 07:25:00,53.3,51.6,30.10,North,3,0.0,0.0,94,0.00,CLR,,0.00,WeatherDisplay:10.37,2013-10-16 11:25:00,
2013-10-16 07:26:00,52.9,51.2,30.10,North,3,0.0,0.0,94,0.00,CLR,,0.00,WeatherDisplay:10.37,2013-10-16 11:26:00,
2013-10-16 07:29:00,52.8,51.1,30.10,North,3,0.0,0.0,94,0.00,CLR,,0.00,WeatherDisplay:10.37,2013-10-16 11:29:00,
2013-10-16 07:30:00,52.8,51.1,30.09,North,3,0.0,0.0,94,0.00,CLR,,0.00,WeatherDisplay:10.37,2013-10-16 11:30:00,
2013-10-16 07:31:00,52.8,51.1,30.09,North,3,0.0,0.0,94,0.00,CLR,,0.00,WeatherDisplay:10.37,2013-10-16 11:31:00,
2013-10-16 07:34:00,52.0,50.3,30.09,North,3,0.0,0.0,94,0.00,CLR,,0.00,WeatherDisplay:10.37,2013-10-16 11:34:00,
2013-10-16 07:35:00,52.0,50.3,30.09,North,3,0.0,0.0,94,0.00,CLR,,0.00,WeatherDisplay:10.37,2013-10-16 11:35:00,
2013-10-16 07:36:00,53.3,51.6,30.09,North,3,0.0,0.0,94,0.00,CLR,,0.00,WeatherDisplay:10.37,2013-10-16 11:36:00,
2013-10-16 07:37:00,52.5,50.8,30.09,North,3,0.0,0.0,94,0.00,CLR,,0.00,WeatherDisplay:10.37,2013-10-16 11:37:00,
2013-10-16 07:40:00,52.0,50.3,30.09,North,3,0.0,0.0,94,0.00,CLR,,0.00,WeatherDisplay:10.37,2013-10-16 11:40:00,
2013-10-16 07:41:00,51.4,49.7,30.09,North,3,0.0,0.0,94,0.00,CLR,,0.00,WeatherDisplay:10.37,2013-10-16 11:41:00,
2013-10-16 07:42:00,52.8,51.1,30.10,North,3,0.0,0.0,94,0.00,CLR,,0.00,WeatherDisplay:10.37,2013-10-16 11:42:00,
2013-10-16 07:45:00,52.1,50.4,30.10,North,3,0.0,0.0,94,0.00,CLR,,0.00,WeatherDisplay:10.37,2013-10-16 11:45:00,
2013-10-16 07:46:00,52.0,50.3,30.10,North,3,0.0,0.0,94,0.00,CLR,,0.00,WeatherDisplay:10.37,2013-10-16 11:46:00,
2013-10-16 07:47:00,51.9,50.2,30.10,North,3,0.0,0.0,94,0.00,CLR,,0.00,WeatherDisplay:10.37,2013-10-16 11:47:00,
2013-10-16 07:50:00,52.2,50.5,30.10,North,3,0.0,0.0,94,0.00,CLR,,0.00,WeatherDisplay:10.37,2013-10-16 11:50:00,
2013-10-16 07:51:00,53.1,51.4,30.10,North,3,0.0,0.0,94,0.00,CLR,,0.00,WeatherDisplay:10.37,2013-10-16 11:51:00,
2013-10-16 07:52:00,52.6,50.9,30.10,North,3,0.0,0.0,94,0.00,CLR,,0.00,WeatherDisplay:10.37,2013-10-16 11:52:00,
2013-10-16 07:53:00,52.1,50.4,30.10,North,3,0.0,0.0,94,0.00,CLR,,0.00,WeatherDisplay:10.37,2013-10-16 11:53:00,
2013-10-16 07:55:00,51.8,50.1,30.10,North,3,0.0,0.0,94,0.00,CLR,,0.00,WeatherDisplay:10.37,2013-10-16 11:55:00,
2013-10-16 07:56:00,52.7,51.0,30.10,North,3,0.0,0.0,94,0.00,CLR,,0.00,WeatherDisplay:10.37,2013-10-16 11:56:00,
2013-10-16 07:57:00,52.4,50.7,30.10,North,3,0.0,0.0,94,0.00,CLR,,0.00,WeatherDisplay:10.37,2013-10-16 11:57:00,
2013-10-16 07:58:00,52.0,50.3,30.10,North,3,0.0,0.0,94,0.00,CLR,,0.00,WeatherDisplay:10.37,2013-10-16 11:58:00,
2013-10-16 08:00:00,52.8,51.1,30.10,North,3,0.0,0.0,94,0.00,CLR,,0.00,WeatherDisplay:10.37,2013-10-16 12:00:00,
2013-10-16 08:01:00,52.5,50.8,30.10,North,3,0.0,0.0,94,0.00,CLR,,0.00,WeatherDisplay:10.37,2013-10-16 12:01:00,
2013-10-16 08:03:00,52.1,50.4,30.10,North,3,0.0,0.0,94,0.00,CLR,,0.00,WeatherDisplay:10.37,2013-10-16 12:03:00,
2013-10-16 08:05:00,51.6,49.9,30.10,North,3,0.0,0.0,94,0.00,CLR,,0.00,WeatherDisplay:10.37,2013-10-16 12:05:00,
2013-10-16 08:06:00,51.4,49.7,30.10,North,3,0.0,0.0,94,0.00,CLR,,0.00,WeatherDisplay:10.37,2013-10-16 12:06:00,
2013-10-16 08:07:00,51.5,49.8,30.10,North,3,0.0,0.0,94,0.00,CLR,,0.00,WeatherDisplay:10.37,2013-10-16 12:07:00,
2013-10-16 08:08:00,51.6,49.9,30.10,North,3,0.0,0.0,94,0.00,CLR,,0.00,WeatherDisplay:10.37,2013-10-16 12:08:00,
2013-10-16 08:09:00,51.9,50.2,30.10,North,3,0.0,0.0,94,0.00,CLR,,0.00,WeatherDisplay:10.37,2013-10-16 12:09:00,
2013-10-16 08:11:00,51.9,50.2,30.10,North,3,0.0,0.0,94,0.00,CLR,,0.00,WeatherDisplay:10.37,2013-10-16 12:11:00,
2013-10-16 08:12:00,52.3,50.6,30.10,North,3,0.0,0.0,94,0.00,CLR,,0.00,WeatherDisplay:10.37,2013-10-16 12:12:00,
2013-10-16 08:14:00,51.9,50.2,30.10,North,3,0.0,0.0,94,0.00,CLR,,0.00,WeatherDisplay:10.37,2013-10-16 12:14:00,
2013-10-16 08:16:00,53.0,51.3,30.09,North,3,0.0,0.0,94,0.00,CLR,,0.00,WeatherDisplay:10.37,2013-10-16 12:16:00,
2013-10-16 08:17:00,53.1,51.4,30.09,North,3,0.0,0.0,94,0.00,CLR,,0.00,WeatherDisplay:10.37,2013-10-16 12:17:00,
2013-10-16 08:19:00,53.0,51.6,30.09,North,3,0.0,0.0,95,0.00,CLR,,0.00,WeatherDisplay:10.37,2013-10-16 12:19:00,
2013-10-16 08:21:00,52.4,51.0,30.09,North,3,0.0,0.0,95,0.00,CLR,,0.00,WeatherDisplay:10.37,2013-10-16 12:21:00,
2013-10-16 08:22:00,52.9,51.2,30.09,North,3,0.0,0.0,94,0.00,CLR,,0.00,WeatherDisplay:10.37,2013-10-16 12:22:00,
2013-10-16 08:24:00,54.2,52.5,30.09,North,3,0.0,0.0,94,0.00,CLR,,0.00,WeatherDisplay:10.37,2013-10-16 12:24:00,
2013-10-16 08:25:00,54.2,52.5,30.10,North,3,0.0,0.0,94,0.00,CLR,,0.00,WeatherDisplay:10.37,2013-10-16 12:25:00,
2013-10-16 08:26:00,53.8,52.1,30.10,North,3,0.0,0.0,94,0.00,CLR,,0.00,WeatherDisplay:10.37,2013-10-16 12:26:00,
2013-10-16 08:27:00,53.2,51.5,30.10,ESE,116,0.3,0.0,94,0.00,CLR,,0.00,WeatherDisplay:10.37,2013-10-16 12:27:00,
2013-10-16 08:30:00,53.3,51.6,30.10,ESE,116,0.0,0.0,94,0.00,CLR,,0.00,WeatherDisplay:10.37,2013-10-16 12:30:00,
2013-10-16 08:31:00,54.3,52.6,30.10,ESE,116,0.0,0.0,94,0.00,CLR,,0.00,WeatherDisplay:10.37,2013-10-16 12:31:00,
2013-10-16 08:32:00,53.3,51.6,30.10,NW,304,0.2,2.3,94,0.00,CLR,,0.00,WeatherDisplay:10.37,2013-10-16 12:32:00,
2013-10-16 08:33:00,54.5,52.8,30.11,NW,304,0.0,2.3,94,0.00,CLR,,0.00,WeatherDisplay:10.37,2013-10-16 12:33:00,
2013-10-16 08:35:00,54.1,52.4,30.11,West,281,0.0,3.5,94,0.00,CLR,,0.00,WeatherDisplay:10.37,2013-10-16 12:35:00,
2013-10-16 08:36:00,53.5,51.8,30.10,West,281,0.0,0.0,94,0.00,CLR,,0.00,WeatherDisplay:10.37,2013-10-16 12:36:00,
2013-10-16 08:37:00,53.5,51.8,30.10,West,281,0.0,0.0,94,0.00,CLR,,0.00,WeatherDisplay:10.37,2013-10-16 12:37:00,
2013-10-16 08:38:00,53.4,51.7,30.10,West,281,0.0,0.0,94,0.00,CLR,,0.00,WeatherDisplay:10.37,2013-10-16 12:38:00,
2013-10-16 08:41:00,54.3,52.3,30.10,West,281,0.0,0.0,93,0.00,CLR,,0.00,WeatherDisplay:10.37,2013-10-16 12:41:00,
2013-10-16 08:42:00,54.5,52.5,30.10,West,281,0.0,0.0,93,0.00,CLR,,0.00,WeatherDisplay:10.37,2013-10-16 12:42:00,
2013-10-16 08:43:00,54.2,52.2,30.10,West,281,0.0,0.0,93,0.00,CLR,,0.00,WeatherDisplay:10.37,2013-10-16 12:43:00,
2013-10-16 08:46:00,54.7,52.7,30.10,West,281,0.0,0.0,93,0.00,CLR,,0.00,WeatherDisplay:10.37,2013-10-16 12:46:00,
2013-10-16 08:47:00,53.3,51.3,30.11,West,281,0.0,0.0,93,0.00,CLR,,0.00,WeatherDisplay:10.37,2013-10-16 12:47:00,
2013-10-16 08:48:00,54.4,52.4,30.10,West,281,0.0,0.0,93,0.00,CLR,,0.00,WeatherDisplay:10.37,2013-10-16 12:48:00,
2013-10-16 08:51:00,53.8,51.8,30.11,West,281,0.0,0.0,93,0.00,CLR,,0.00,WeatherDisplay:10.37,2013-10-16 12:51:00,
2013-10-16 08:52:00,55.1,53.1,30.11,West,281,0.0,0.0,93,0.00,CLR,,0.00,WeatherDisplay:10.37,2013-10-16 12:52:00,
2013-10-16 08:53:00,54.5,52.5,30.11,West,281,0.0,0.0,93,0.00,CLR,,0.00,WeatherDisplay:10.37,2013-10-16 12:53:00,
2013-10-16 08:56:00,54.6,52.6,30.11,West,277,0.2,0.0,93,0.00,CLR,,0.00,WeatherDisplay:10.37,2013-10-16 12:56:00,
2013-10-16 08:57:00,54.3,52.3,30.11,West,277,0.0,2.3,93,0.00,CLR,,0.00,WeatherDisplay:10.37,2013-10-16 12:57:00,
2013-10-16 08:58:00,53.9,51.9,30.11,West,277,0.0,0.0,93,0.00,CLR,,0.00,WeatherDisplay:10.37,2013-10-16 12:58:00,
2013-10-16 08:59:00,54.4,52.4,30.11,West,277,0.0,0.0,93,0.00,CLR,,0.00,WeatherDisplay:10.37,2013-10-16 12:59:00,
2013-10-16 09:02:00,55.2,52.9,30.11,West,267,0.5,5.8,92,0.00,CLR,,0.00,WeatherDisplay:10.37,2013-10-16 13:02:00,
2013-10-16 09:03:00,54.8,52.5,30.11,West,267,0.0,0.0,92,0.00,CLR,,0.00,WeatherDisplay:10.37,2013-10-16 13:03:00,
2013-10-16 09:04:00,54.6,52.3,30.11,West,267,0.0,0.0,92,0.00,CLR,,0.00,WeatherDisplay:10.37,2013-10-16 13:04:00,
2013-10-16 09:07:00,55.3,53.0,30.11,West,267,0.0,0.0,92,0.00,CLR,,0.00,WeatherDisplay:10.37,2013-10-16 13:07:00,
2013-10-16 09:08:00,54.8,52.5,30.11,West,267,0.0,0.0,92,0.00,CLR,,0.00,WeatherDisplay:10.37,2013-10-16 13:08:00,
2013-10-16 09:09:00,55.4,53.1,30.11,West,267,0.0,0.0,92,0.00,CLR,,0.00,WeatherDisplay:10.37,2013-10-16 13:09:00,
2013-10-16 09:11:00,55.8,53.2,30.11,West,267,0.0,0.0,91,0.00,CLR,,0.00,WeatherDisplay:10.37,2013-10-16 13:11:00,
2013-10-16 09:12:00,56.5,53.9,30.11,West,267,0.0,0.0,91,0.00,CLR,,0.00,WeatherDisplay:10.37,2013-10-16 13:12:00,
2013-10-16 09:14:00,55.9,53.3,30.11,West,267,0.0,2.1,91,0.00,CLR,,0.00,WeatherDisplay:10.37,2013-10-16 13:14:00,
2013-10-16 09:15:00,56.9,54.3,30.11,SW,219,1.6,4.6,91,0.00,CLR,,0.00,WeatherDisplay:10.37,2013-10-16 13:15:00,
2013-10-16 09:16:00,56.8,54.2,30.11,SW,219,0.0,0.0,91,0.00,CLR,,0.00,WeatherDisplay:10.37,2013-10-16 13:16:00,
2013-10-16 09:17:00,55.8,53.2,30.11,SW,219,0.0,0.0,91,0.00,CLR,,0.00,WeatherDisplay:10.37,2013-10-16 13:17:00,
2013-10-16 09:18:00,57.1,54.5,30.11,SW,219,0.0,0.0,91,0.00,CLR,,0.00,WeatherDisplay:10.37,2013-10-16 13:18:00,
2013-10-16 09:19:00,57.2,54.6,30.11,SW,219,0.0,0.0,91,0.00,CLR,,0.00,WeatherDisplay:10.37,2013-10-16 13:19:00,
2013-10-16 09:20:00,57.1,54.5,30.11,SW,219,0.0,0.0,91,0.00,CLR,,0.00,WeatherDisplay:10.37,2013-10-16 13:20:00,
2013-10-16 09:21:00,58.4,55.8,30.11,SW,219,0.0,0.0,91,0.00,CLR,,0.00,WeatherDisplay:10.37,2013-10-16 13:21:00,
2013-10-16 09:22:00,58.0,55.1,30.11,SW,219,0.0,0.0,90,0.00,CLR,,0.00,WeatherDisplay:10.37,2013-10-16 13:22:00,
2013-10-16 09:23:00,57.6,54.7,30.11,SW,219,0.0,0.0,90,0.00,CLR,,0.00,WeatherDisplay:10.37,2013-10-16 13:23:00,
2013-10-16 09:24:00,58.5,55.6,30.11,SW,219,0.0,0.0,90,0.00,CLR,,0.00,WeatherDisplay:10.37,2013-10-16 13:24:00,
2013-10-16 09:25:00,58.7,55.8,30.11,SW,219,0.0,0.0,90,0.00,CLR,,0.00,WeatherDisplay:10.37,2013-10-16 13:25:00,
2013-10-16 09:26:00,57.6,54.7,30.11,SW,219,0.0,0.0,90,0.00,CLR,,0.00,WeatherDisplay:10.37,2013-10-16 13:26:00,
2013-10-16 09:27:00,58.7,55.8,30.11,SW,219,0.0,0.0,90,0.00,CLR,,0.00,WeatherDisplay:10.37,2013-10-16 13:27:00,
2013-10-16 09:28:00,58.8,55.9,30.11,SW,219,0.0,0.0,90,0.00,CLR,,0.00,WeatherDisplay:10.37,2013-10-16 13:28:00,
2013-10-16 09:29:00,58.0,55.1,30.11,SW,219,0.0,0.0,90,0.00,CLR,,0.00,WeatherDisplay:10.37,2013-10-16 13:29:00,
2013-10-16 09:31:00,58.9,55.7,30.11,SW,219,0.0,0.0,89,0.00,CLR,,0.00,WeatherDisplay:10.37,2013-10-16 13:31:00,
2013-10-16 09:32:00,59.1,55.9,30.11,SW,219,0.0,0.0,89,0.00,CLR,,0.00,WeatherDisplay:10.37,2013-10-16 13:32:00,
2013-10-16 09:33:00,59.0,55.8,30.11,SW,219,0.0,0.0,89,0.00,CLR,,0.00,WeatherDisplay:10.37,2013-10-16 13:33:00,
2013-10-16 09:35:00,59.4,56.2,30.11,SW,219,0.0,0.0,89,0.00,CLR,,0.00,WeatherDisplay:10.37,2013-10-16 13:35:00,
2013-10-16 09:36:00,59.7,56.5,30.11,SW,219,0.0,0.0,89,0.00,CLR,,0.00,WeatherDisplay:10.37,2013-10-16 13:36:00,
2013-10-16 09:37:00,59.5,56.3,30.11,SW,219,0.0,0.0,89,0.00,CLR,,0.00,WeatherDisplay:10.37,2013-10-16 13:37:00,
2013-10-16 09:38:00,59.7,56.5,30.11,SW,219,0.0,0.0,89,0.00,CLR,,0.00,WeatherDisplay:10.37,2013-10-16 13:38:00,
2013-10-16 09:40:00,59.5,55.9,30.11,SW,219,0.0,0.0,88,0.00,CLR,,0.00,WeatherDisplay:10.37,2013-10-16 13:40:00,
2013-10-16 09:41:00,59.4,55.8,30.11,SW,219,0.0,0.0,88,0.00,CLR,,0.00,WeatherDisplay:10.37,2013-10-16 13:41:00,
2013-10-16 09:42:00,60.0,56.4,30.11,SW,219,0.0,0.0,88,0.00,CLR,,0.00,WeatherDisplay:10.37,2013-10-16 13:42:00,
2013-10-16 09:43:00,60.1,56.5,30.11,SW,219,0.0,0.0,88,0.00,CLR,,0.00,WeatherDisplay:10.37,2013-10-16 13:43:00,
2013-10-16 09:45:00,60.5,56.9,30.11,SW,219,0.0,0.0,88,0.00,CLR,,0.00,WeatherDisplay:10.37,2013-10-16 13:45:00,
2013-10-16 09:47:00,60.1,56.5,30.11,SW,219,0.0,0.0,88,0.00,CLR,,0.00,WeatherDisplay:10.37,2013-10-16 13:47:00,
2013-10-16 09:48:00,60.6,56.7,30.11,SW,219,0.0,0.0,87,0.00,CLR,,0.00,WeatherDisplay:10.37,2013-10-16 13:48:00,
2013-10-16 09:50:00,60.8,56.6,30.11,SW,219,0.0,0.0,86,0.00,CLR,,0.00,WeatherDisplay:10.37,2013-10-16 13:50:00,
2013-10-16 09:52:00,61.2,56.7,30.11,NW,305,0.6,2.3,85,0.00,CLR,,0.00,WeatherDisplay:10.37,2013-10-16 13:52:00,
2013-10-16 09:53:00,60.6,56.4,30.10,NW,305,0.0,2.3,86,0.00,CLR,,0.00,WeatherDisplay:10.37,2013-10-16 13:53:00,
2013-10-16 09:55:00,60.9,56.7,30.10,NW,305,0.0,0.0,86,0.00,CLR,,0.00,WeatherDisplay:10.37,2013-10-16 13:55:00,
2013-10-16 09:56:00,61.1,56.9,30.10,NW,305,0.0,0.0,86,0.00,CLR,,0.00,WeatherDisplay:10.37,2013-10-16 13:56:00,
2013-10-16 09:57:00,60.8,56.6,30.10,NW,305,0.0,0.0,86,0.00,CLR,,0.00,WeatherDisplay:10.37,2013-10-16 13:57:00,
2013-10-16 09:58:00,61.1,56.9,30.10,NW,305,0.0,0.0,86,0.00,CLR,,0.00,WeatherDisplay:10.37,2013-10-16 13:58:00,
2013-10-16 09:59:00,60.8,56.6,30.10,NW,305,0.0,0.0,86,0.00,CLR,,0.00,WeatherDisplay:10.37,2013-10-16 13:59:00,
2013-10-16 10:00:00,61.0,56.8,30.10,North,11,0.0,0.0,86,0.00,CLR,,0.00,WeatherDisplay:10.37,2013-10-16 14:00:00,
2013-10-16 10:01:00,61.4,56.8,30.10,North,11,0.0,0.0,85,0.00,CLR,,0.00,WeatherDisplay:10.37,2013-10-16 14:01:00,
2013-10-16 10:02:00,61.4,56.8,30.10,North,11,0.0,0.0,85,0.00,CLR,,0.00,WeatherDisplay:10.37,2013-10-16 14:02:00,
2013-10-16 10:03:00,61.8,57.2,30.10,North,11,0.0,0.0,85,0.00,CLR,,0.00,WeatherDisplay:10.37,2013-10-16 14:03:00,
2013-10-16 10:04:00,61.6,57.0,30.10,NW,305,0.0,2.6,85,0.00,CLR,,0.00,WeatherDisplay:10.37,2013-10-16 14:04:00,
2013-10-16 10:05:00,61.8,56.9,30.10,NW,305,0.0,2.3,84,0.00,CLR,,0.00,WeatherDisplay:10.37,2013-10-16 14:05:00,
2013-10-16 10:06:00,61.7,56.8,30.10,NW,305,0.0,0.0,84,0.00,CLR,,0.00,WeatherDisplay:10.37,2013-10-16 14:06:00,
2013-10-16 10:07:00,62.1,57.2,30.10,NW,305,0.0,0.0,84,0.00,CLR,,0.00,WeatherDisplay:10.37,2013-10-16 14:07:00,
2013-10-16 10:08:00,62.1,57.2,30.10,NW,305,0.0,0.0,84,0.00,CLR,,0.00,WeatherDisplay:10.37,2013-10-16 14:08:00,
2013-10-16 10:09:00,62.2,57.3,30.10,NW,305,0.0,0.0,84,0.00,CLR,,0.00,WeatherDisplay:10.37,2013-10-16 14:09:00,
2013-10-16 10:11:00,62.3,57.4,30.10,NW,305,0.0,0.0,84,0.00,CLR,,0.00,WeatherDisplay:10.37,2013-10-16 14:11:00,
2013-10-16 10:12:00,62.6,57.4,30.10,NW,305,0.0,0.0,83,0.00,CLR,,0.00,WeatherDisplay:10.37,2013-10-16 14:12:00,
2013-10-16 10:13:00,62.9,57.7,30.10,NW,305,0.0,0.0,83,0.00,CLR,,0.00,WeatherDisplay:10.37,2013-10-16 14:13:00,
2013-10-16 10:14:00,62.6,57.4,30.10,NW,305,0.0,0.0,83,0.00,CLR,,0.00,WeatherDisplay:10.37,2013-10-16 14:14:00,
2013-10-16 10:17:00,62.6,57.0,30.09,NW,305,0.0,0.0,82,0.00,CLR,,0.00,WeatherDisplay:10.37,2013-10-16 14:17:00,
2013-10-16 10:18:00,63.0,57.1,30.09,NW,305,0.0,0.0,81,0.00,CLR,,0.00,WeatherDisplay:10.37,2013-10-16 14:18:00,
2013-10-16 10:19:00,62.8,56.9,30.09,NW,305,0.0,0.0,81,0.00,CLR,,0.00,WeatherDisplay:10.37,2013-10-16 14:19:00,
2013-10-16 10:22:00,63.4,57.5,30.08,NW,305,0.0,0.0,81,0.00,CLR,,0.00,WeatherDisplay:10.37,2013-10-16 14:22:00,
2013-10-16 10:24:00,63.5,57.2,30.08,NW,305,0.0,0.0,80,0.00,CLR,,0.00,WeatherDisplay:10.37,2013-10-16 14:24:00,
2013-10-16 10:25:00,63.6,57.3,30.08,NW,305,0.0,0.0,80,0.00,CLR,,0.00,WeatherDisplay:10.37,2013-10-16 14:25:00,
2013-10-16 10:27:00,63.7,57.1,30.08,NW,305,0.0,0.0,79,0.00,CLR,,0.00,WeatherDisplay:10.37,2013-10-16 14:27:00,
2013-10-16 10:28:00,63.8,57.2,30.08,NW,305,0.0,0.0,79,0.00,CLR,,0.00,WeatherDisplay:10.37,2013-10-16 14:28:00,
2013-10-16 10:29:00,64.0,57.4,30.08,NW,305,0.0,0.0,79,0.00,CLR,,0.00,WeatherDisplay:10.37,2013-10-16 14:29:00,
2013-10-16 10:30:00,64.1,57.5,30.08,NW,305,0.0,0.0,79,0.00,CLR,,0.00,WeatherDisplay:10.37,2013-10-16 14:30:00,
2013-10-16 10:32:00,64.3,57.3,30.08,NW,305,0.0,0.0,78,0.00,CLR,,0.00,WeatherDisplay:10.37,2013-10-16 14:32:00,
2013-10-16 10:33:00,64.3,57.3,30.08,NW,305,0.0,0.0,78,0.00,CLR,,0.00,WeatherDisplay:10.37,2013-10-16 14:33:00,
2013-10-16 10:34:00,64.8,57.8,30.08,NW,305,0.0,0.0,78,0.00,CLR,,0.00,WeatherDisplay:10.37,2013-10-16 14:34:00,
2013-10-16 10:35:00,64.7,57.3,30.08,NW,305,0.0,0.0,77,0.00,CLR,,0.00,WeatherDisplay:10.37,2013-10-16 14:35:00,
2013-10-16 10:37:00,64.7,57.3,30.08,NW,305,0.0,0.0,77,0.00,CLR,,0.00,WeatherDisplay:10.37,2013-10-16 14:37:00,
2013-10-16 10:38:00,64.7,57.3,30.08,NW,305,0.0,0.0,77,0.00,CLR,,0.00,WeatherDisplay:10.37,2013-10-16 14:38:00,
2013-10-16 10:39:00,64.9,57.5,30.08,NW,305,0.0,0.0,77,0.00,CLR,,0.00,WeatherDisplay:10.37,2013-10-16 14:39:00,
2013-10-16 10:40:00,64.8,57.4,30.08,NW,305,0.0,0.0,77,0.00,CLR,,0.00,WeatherDisplay:10.37,2013-10-16 14:40:00,
2013-10-16 10:42:00,65.1,57.3,30.08,NW,305,0.0,0.0,76,0.00,CLR,,0.00,WeatherDisplay:10.37,2013-10-16 14:42:00,
2013-10-16 10:43:00,65.3,57.5,30.08,NW,305,0.0,0.0,76,0.00,CLR,,0.00,WeatherDisplay:10.37,2013-10-16 14:43:00,
2013-10-16 10:44:00,65.5,57.4,30.08,SE,127,3.4,5.8,75,0.00,CLR,,0.00,WeatherDisplay:10.37,2013-10-16 14:44:00,
2013-10-16 10:45:00,65.4,57.3,30.08,East,96,1.6,4.6,75,0.00,CLR,,0.00,WeatherDisplay:10.37,2013-10-16 14:45:00,
2013-10-16 10:47:00,65.9,57.4,30.08,East,96,0.0,0.0,74,0.00,CLR,,0.00,WeatherDisplay:10.37,2013-10-16 14:47:00,
2013-10-16 10:48:00,66.0,57.1,30.08,East,96,0.0,0.0,73,0.00,CLR,,0.00,WeatherDisplay:10.37,2013-10-16 14:48:00,
2013-10-16 10:49:00,65.9,57.4,30.08,East,96,0.0,0.0,74,0.00,CLR,,0.00,WeatherDisplay:10.37,2013-10-16 14:49:00,
2013-10-16 10:50:00,66.2,57.3,30.08,East,96,0.0,0.0,73,0.00,CLR,,0.00,WeatherDisplay:10.37,2013-10-16 14:50:00,
2013-10-16 10:51:00,66.1,57.2,30.07,East,96,0.0,0.0,73,0.00,CLR,,0.00,WeatherDisplay:10.37,2013-10-16 14:51:00,
2013-10-16 10:53:00,66.7,57.4,30.07,East,96,0.0,0.0,72,0.00,CLR,,0.00,WeatherDisplay:10.37,2013-10-16 14:53:00,
2013-10-16 10:54:00,67.0,57.7,30.07,East,96,0.0,0.0,72,0.00,CLR,,0.00,WeatherDisplay:10.37,2013-10-16 14:54:00,
2013-10-16 10:55:00,66.8,57.5,30.07,East,96,0.0,0.0,72,0.00,CLR,,0.00,WeatherDisplay:10.37,2013-10-16 14:55:00,
2013-10-16 10:56:00,66.8,57.5,30.07,East,96,0.0,0.0,72,0.00,CLR,,0.00,WeatherDisplay:10.37,2013-10-16 14:56:00,
2013-10-16 10:58:00,67.7,57.6,30.07,South,179,2.4,4.6,70,0.00,CLR,,0.00,WeatherDisplay:10.37,2013-10-16 14:58:00,
2013-10-16 10:59:00,67.5,57.4,30.07,South,179,0.7,3.5,70,0.00,CLR,,0.00,WeatherDisplay:10.37,2013-10-16 14:59:00,
2013-10-16 11:01:00,67.8,57.3,30.07,South,179,0.0,0.0,69,0.00,CLR,,0.00,WeatherDisplay:10.37,2013-10-16 15:01:00,
2013-10-16 11:02:00,68.0,57.0,30.07,South,179,0.0,0.0,68,0.00,CLR,,0.00,WeatherDisplay:10.37,2013-10-16 15:02:00,
2013-10-16 11:03:00,67.8,56.4,30.07,South,179,0.4,0.0,67,0.00,CLR,,0.00,WeatherDisplay:10.37,2013-10-16 15:03:00,
2013-10-16 11:04:00,68.2,57.2,30.07,SE,133,1.5,5.2,68,0.00,CLR,,0.00,WeatherDisplay:10.37,2013-10-16 15:04:00,
2013-10-16 11:06:00,68.2,57.2,30.07,ESE,113,4.5,5.8,68,0.00,CLR,,0.00,WeatherDisplay:10.37,2013-10-16 15:06:00,
2013-10-16 11:07:00,68.3,57.3,30.07,ESE,103,0.0,4.6,68,0.00,CLR,,0.00,WeatherDisplay:10.37,2013-10-16 15:07:00,
2013-10-16 11:08:00,68.4,57.4,30.08,ESE,103,0.0,0.0,68,0.00,CLR,,0.00,WeatherDisplay:10.37,2013-10-16 15:08:00,
2013-10-16 11:09:00,68.1,56.7,30.08,ESE,103,0.0,0.0,67,0.00,CLR,,0.00,WeatherDisplay:10.37,2013-10-16 15:09:00,
2013-10-16 11:11:00,68.4,57.0,30.08,ESE,103,0.0,0.0,67,0.00,CLR,,0.00,WeatherDisplay:10.37,2013-10-16 15:11:00,
2013-10-16 11:13:00,68.4,57.0,30.07,SSW,200,0.5,5.5,67,0.00,CLR,,0.00,WeatherDisplay:10.37,2013-10-16 15:13:00,
2013-10-16 11:14:00,68.4,57.0,30.07,South,185,2.2,5.8,67,0.00,CLR,,0.00,WeatherDisplay:10.37,2013-10-16 15:14:00,
2013-10-16 11:15:00,68.4,57.0,30.08,South,185,0.5,5.8,67,0.00,CLR,,0.00,WeatherDisplay:10.37,2013-10-16 15:15:00,
2013-10-16 11:16:00,68.3,56.5,30.07,South,185,0.0,0.0,66,0.00,CLR,,0.00,WeatherDisplay:10.37,2013-10-16 15:16:00,
2013-10-16 11:19:00,68.4,57.0,30.07,South,185,0.0,0.0,67,0.00,CLR,,0.00,WeatherDisplay:10.37,2013-10-16 15:19:00,
2013-10-16 11:20:00,68.3,56.9,30.07,South,185,0.0,0.0,67,0.00,CLR,,0.00,WeatherDisplay:10.37,2013-10-16 15:20:00,
2013-10-16 11:21:00,68.3,56.9,30.08,South,185,0.0,0.0,67,0.00,CLR,,0.00,WeatherDisplay:10.37,2013-10-16 15:21:00,
2013-10-16 11:22:00,68.4,57.0,30.08,South,185,0.0,0.0,67,0.00,CLR,,0.00,WeatherDisplay:10.37,2013-10-16 15:22:00,
2013-10-16 11:24:00,68.5,57.1,30.08,South,185,0.0,0.0,67,0.00,CLR,,0.00,WeatherDisplay:10.37,2013-10-16 15:24:00,
2013-10-16 11:25:00,68.7,57.3,30.08,South,185,0.0,0.0,67,0.00,CLR,,0.00,WeatherDisplay:10.37,2013-10-16 15:25:00,
2013-10-16 11:26:00,68.5,56.7,30.08,South,185,0.0,0.0,66,0.00,CLR,,0.00,WeatherDisplay:10.37,2013-10-16 15:26:00,
2013-10-16 11:27:00,68.7,56.9,30.07,South,185,0.0,0.0,66,0.00,CLR,,0.00,WeatherDisplay:10.37,2013-10-16 15:27:00,
2013-10-16 11:29:00,68.7,56.9,30.07,North,350,0.0,2.3,66,0.00,CLR,,0.00,WeatherDisplay:10.37,2013-10-16 15:29:00,
2013-10-16 11:30:00,68.8,57.0,30.07,North,350,0.0,2.3,66,0.00,CLR,,0.00,WeatherDisplay:10.37,2013-10-16 15:30:00,
2013-10-16 11:31:00,68.8,57.4,30.07,North,350,0.0,0.0,67,0.00,CLR,,0.00,WeatherDisplay:10.37,2013-10-16 15:31:00,
2013-10-16 11:32:00,68.8,57.4,30.07,North,350,0.0,0.0,67,0.00,CLR,,0.00,WeatherDisplay:10.37,2013-10-16 15:32:00,
2013-10-16 11:33:00,69.2,57.8,30.07,North,350,0.0,0.0,67,0.00,CLR,,0.00,WeatherDisplay:10.37,2013-10-16 15:33:00,
2013-10-16 11:35:00,69.3,57.5,30.07,North,350,0.0,0.0,66,0.00,CLR,,0.00,WeatherDisplay:10.37,2013-10-16 15:35:00,
2013-10-16 11:36:00,69.7,57.8,30.07,North,350,0.0,0.0,66,0.00,CLR,,0.00,WeatherDisplay:10.37,2013-10-16 15:36:00,
2013-10-16 11:37:00,69.7,57.8,30.07,North,350,0.0,0.0,66,0.00,CLR,,0.00,WeatherDisplay:10.37,2013-10-16 15:37:00,
2013-10-16 11:38:00,69.4,57.1,30.07,North,350,0.0,0.0,65,0.00,CLR,,0.00,WeatherDisplay:10.37,2013-10-16 15:38:00,
2013-10-16 11:40:00,69.9,57.6,30.07,ESE,109,2.3,4.6,65,0.00,CLR,,0.00,WeatherDisplay:10.37,2013-10-16 15:40:00,
2013-10-16 11:41:00,69.6,57.7,30.07,ESE,109,0.6,3.5,66,0.00,CLR,,0.00,WeatherDisplay:10.37,2013-10-16 15:41:00,
2013-10-16 11:42:00,70.2,57.9,30.07,SSE,162,1.3,5.9,65,0.00,CLR,,0.00,WeatherDisplay:10.37,2013-10-16 15:42:00,
2013-10-16 11:43:00,70.2,57.9,30.07,East,79,3.1,5.8,65,0.00,CLR,,0.00,WeatherDisplay:10.37,2013-10-16 15:43:00,
2013-10-16 11:45:00,70.5,57.7,30.07,NE,56,0.4,3.5,64,0.00,CLR,,0.00,WeatherDisplay:10.37,2013-10-16 15:45:00,
2013-10-16 11:46:00,70.2,57.4,30.07,NE,56,0.0,0.0,64,0.00,CLR,,0.00,WeatherDisplay:10.37,2013-10-16 15:46:00,
2013-10-16 11:47:00,70.6,57.8,30.07,South,176,0.3,4.6,64,0.00,CLR,,0.00,WeatherDisplay:10.37,2013-10-16 15:47:00,
2013-10-16 11:48:00,70.2,57.4,30.07,SSE,150,3.1,5.8,64,0.00,CLR,,0.00,WeatherDisplay:10.37,2013-10-16 15:48:00,
2013-10-16 11:50:00,70.5,57.3,30.07,SSE,150,0.0,0.0,63,0.00,CLR,,0.00,WeatherDisplay:10.37,2013-10-16 15:50:00,
2013-10-16 11:51:00,70.9,58.1,30.07,SSE,150,0.0,0.0,64,0.00,CLR,,0.00,WeatherDisplay:10.37,2013-10-16 15:51:00,
2013-10-16 11:52:00,70.8,58.0,30.07,SSE,150,0.0,0.0,64,0.00,CLR,,0.00,WeatherDisplay:10.37,2013-10-16 15:52:00,
2013-10-16 11:53:00,71.2,58.0,30.07,SSE,150,0.0,0.0,63,0.00,CLR,,0.00,WeatherDisplay:10.37,2013-10-16 15:53:00,
2013-10-16 11:56:00,71.2,57.1,30.07,SSE,150,0.0,0.0,61,0.00,CLR,,0.00,WeatherDisplay:10.37,2013-10-16 15:56:00,
2013-10-16 11:57:00,71.2,57.1,30.07,SSE,150,0.0,0.0,61,0.00,CLR,,0.00,WeatherDisplay:10.37,2013-10-16 15:57:00,
2013-10-16 11:58:00,71.3,57.2,30.07,SE,133,0.2,0.0,61,0.00,CLR,,0.00,WeatherDisplay:10.37,2013-10-16 15:58:00,
2013-10-16 12:01:00,71.1,57.4,30.07,SE,133,0.0,0.0,62,0.00,CLR,,0.00,WeatherDisplay:10.37,2013-10-16 16:01:00,
2013-10-16 12:02:00,70.9,57.2,30.07,SE,133,0.0,0.0,62,0.00,CLR,,0.00,WeatherDisplay:10.37,2013-10-16 16:02:00,
2013-10-16 12:03:00,71.3,57.6,30.07,SE,133,0.0,0.0,62,0.00,CLR,,0.00,WeatherDisplay:10.37,2013-10-16 16:03:00,
2013-10-16 12:04:00,71.0,57.3,30.07,SE,133,0.0,0.0,62,0.00,CLR,,0.00,WeatherDisplay:10.37,2013-10-16 16:04:00,
2013-10-16 12:06:00,71.4,57.7,30.07,SE,133,0.0,0.0,62,0.00,CLR,,0.00,WeatherDisplay:10.37,2013-10-16 16:06:00,
2013-10-16 12:07:00,70.9,57.2,30.07,SE,133,0.0,0.0,62,0.00,CLR,,0.00,WeatherDisplay:10.37,2013-10-16 16:07:00,
2013-10-16 12:08:00,71.5,57.8,30.07,SE,133,0.0,0.0,62,0.00,CLR,,0.00,WeatherDisplay:10.37,2013-10-16 16:08:00,
2013-10-16 12:09:00,71.2,57.1,30.07,SE,133,0.0,0.0,61,0.00,CLR,,0.00,WeatherDisplay:10.37,2013-10-16 16:09:00,
2013-10-16 12:11:00,71.3,57.2,30.07,SE,133,0.0,0.0,61,0.00,CLR,,0.00,WeatherDisplay:10.37,2013-10-16 16:11:00,
2013-10-16 12:13:00,71.3,57.2,30.07,SE,133,0.0,0.0,61,0.00,CLR,,0.00,WeatherDisplay:10.37,2013-10-16 16:13:00,
2013-10-16 12:14:00,71.2,56.6,30.07,SE,133,0.0,0.0,60,0.00,CLR,,0.00,WeatherDisplay:10.37,2013-10-16 16:14:00,
2013-10-16 12:17:00,71.4,57.2,30.07,SSW,205,0.3,3.5,61,0.00,CLR,,0.00,WeatherDisplay:10.37,2013-10-16 16:17:00,
2013-10-16 12:18:00,71.4,57.2,30.07,SSW,205,0.0,0.0,61,0.00,CLR,,0.00,WeatherDisplay:10.37,2013-10-16 16:18:00,
2013-10-16 12:19:00,71.5,57.3,30.07,SSW,205,0.0,0.0,61,0.00,CLR,,0.00,WeatherDisplay:10.37,2013-10-16 16:19:00,
2013-10-16 12:20:00,71.6,57.4,30.07,SSW,205,0.0,0.0,61,0.00,CLR,,0.00,WeatherDisplay:10.37,2013-10-16 16:20:00,
2013-10-16 12:22:00,71.6,57.0,30.06,SSW,205,0.0,0.0,60,0.00,CLR,,0.00,WeatherDisplay:10.37,2013-10-16 16:22:00,
2013-10-16 12:23:00,71.8,56.2,30.06,North,350,1.3,4.2,58,0.00,CLR,,0.00,WeatherDisplay:10.37,2013-10-16 16:23:00,
2013-10-16 12:24:00,71.4,56.3,30.06,NNW,335,0.7,4.6,59,0.00,CLR,,0.00,WeatherDisplay:10.37,2013-10-16 16:24:00,
2013-10-16 12:25:00,71.6,57.0,30.06,NNW,335,0.0,2.3,60,0.00,CLR,,0.00,WeatherDisplay:10.37,2013-10-16 16:25:00,
2013-10-16 12:27:00,71.7,57.1,30.06,NNW,335,0.0,0.0,60,0.00,CLR,,0.00,WeatherDisplay:10.37,2013-10-16 16:27:00,
2013-10-16 12:28:00,71.5,56.4,30.06,NNW,335,0.0,0.0,59,0.00,CLR,,0.00,WeatherDisplay:10.37,2013-10-16 16:28:00,
2013-10-16 12:29:00,71.3,56.2,30.06,North,1,1.3,4.6,59,0.00,CLR,,0.00,WeatherDisplay:10.37,2013-10-16 16:29:00,
2013-10-16 12:30:00,71.4,56.3,30.06,NNW,339,3.1,4.6,59,0.00,CLR,,0.00,WeatherDisplay:10.37,2013-10-16 16:30:00,
2013-10-16 12:32:00,71.2,55.7,30.06,NNW,339,0.0,0.0,58,0.00,CLR,,0.00,WeatherDisplay:10.37,2013-10-16 16:32:00,
2013-10-16 12:34:00,71.1,55.6,30.06,NNW,339,0.0,0.0,58,0.00,CLR,,0.00,WeatherDisplay:10.37,2013-10-16 16:34:00,
2013-10-16 12:35:00,71.0,55.5,30.06,NNW,339,0.0,0.0,58,0.00,CLR,,0.00,WeatherDisplay:10.37,2013-10-16 16:35:00,
2013-10-16 12:36:00,71.1,56.0,30.06,NNW,339,0.0,0.0,59,0.00,CLR,,0.00,WeatherDisplay:10.37,2013-10-16 16:36:00,
2013-10-16 12:37:00,71.4,56.8,30.06,NNW,339,0.0,0.0,60,0.00,CLR,,0.00,WeatherDisplay:10.37,2013-10-16 16:37:00,
2013-10-16 12:39:00,71.4,56.8,30.06,NNW,339,0.0,0.0,60,0.00,CLR,,0.00,WeatherDisplay:10.37,2013-10-16 16:39:00,
2013-10-16 12:40:00,71.3,56.7,30.06,NNW,339,0.0,0.0,60,0.00,CLR,,0.00,WeatherDisplay:10.37,2013-10-16 16:40:00,
2013-10-16 12:41:00,71.6,57.4,30.06,NNW,339,0.0,0.0,61,0.00,CLR,,0.00,WeatherDisplay:10.37,2013-10-16 16:41:00,
2013-10-16 12:43:00,71.3,56.2,30.06,NNW,339,0.0,0.0,59,0.00,CLR,,0.00,WeatherDisplay:10.37,2013-10-16 16:43:00,
2013-10-16 12:44:00,71.6,56.5,30.06,NNW,339,0.0,0.0,59,0.00,CLR,,0.00,WeatherDisplay:10.37,2013-10-16 16:44:00,
2013-10-16 12:45:00,71.7,57.1,30.05,NNW,339,0.0,0.0,60,0.00,CLR,,0.00,WeatherDisplay:10.37,2013-10-16 16:45:00,
2013-10-16 12:46:00,71.6,57.0,30.05,NNW,339,0.0,0.0,60,0.00,CLR,,0.00,WeatherDisplay:10.37,2013-10-16 16:46:00,
2013-10-16 12:47:00,71.5,56.4,30.05,NNW,339,0.0,0.0,59,0.00,CLR,,0.00,WeatherDisplay:10.37,2013-10-16 16:47:00,
2013-10-16 12:49:00,71.6,57.0,30.05,NNW,339,0.0,0.0,60,0.00,CLR,,0.00,WeatherDisplay:10.37,2013-10-16 16:49:00,
2013-10-16 12:50:00,71.9,57.3,30.05,NNW,339,0.0,0.0,60,0.00,CLR,,0.00,WeatherDisplay:10.37,2013-10-16 16:50:00,
2013-10-16 12:52:00,72.2,57.5,30.05,NNW,339,0.0,0.0,60,0.00,CLR,,0.00,WeatherDisplay:10.37,2013-10-16 16:52:00,
2013-10-16 12:54:00,72.4,57.7,30.05,NNW,339,0.0,0.0,60,0.00,CLR,,0.00,WeatherDisplay:10.37,2013-10-16 16:54:00,
2013-10-16 12:55:00,72.5,57.4,30.05,NNW,339,0.0,0.0,59,0.00,CLR,,0.00,WeatherDisplay:10.37,2013-10-16 16:55:00,
2013-10-16 12:57:00,72.9,57.7,30.05,NNW,339,0.0,0.0,59,0.00,CLR,,0.00,WeatherDisplay:10.37,2013-10-16 16:57:00,
2013-10-16 12:58:00,72.9,57.3,30.05,NNW,339,0.0,0.0,58,0.00,CLR,,0.00,WeatherDisplay:10.37,2013-10-16 16:58:00,
2013-10-16 12:59:00,72.8,57.2,30.05,NNW,339,0.0,0.0,58,0.00,CLR,,0.00,WeatherDisplay:10.37,2013-10-16 16:59:00,
2013-10-16 13:01:00,73.2,57.5,30.05,NNW,339,0.0,0.0,58,0.00,CLR,,0.00,WeatherDisplay:10.37,2013-10-16 17:01:00,
2013-10-16 13:02:00,73.1,57.0,30.05,SSE,162,4.9,6.9,57,0.00,CLR,,0.00,WeatherDisplay:10.37,2013-10-16 17:02:00,
2013-10-16 13:03:00,73.3,57.1,30.05,SSE,162,0.4,4.6,57,0.00,CLR,,0.00,WeatherDisplay:10.37,2013-10-16 17:03:00,
2013-10-16 13:04:00,73.3,57.1,30.04,SSE,162,0.0,0.0,57,0.00,CLR,,0.00,WeatherDisplay:10.37,2013-10-16 17:04:00,
2013-10-16 13:05:00,73.1,56.5,30.04,SSE,162,0.0,0.0,56,0.00,CLR,,0.00,WeatherDisplay:10.37,2013-10-16 17:05:00,
2013-10-16 13:06:00,73.4,56.7,30.04,SSE,162,0.0,0.0,56,0.00,CLR,,0.00,WeatherDisplay:10.37,2013-10-16 17:06:00,
2013-10-16 13:07:00,73.5,56.8,30.04,SSE,150,0.5,3.5,56,0.00,CLR,,0.00,WeatherDisplay:10.37,2013-10-16 17:07:00,
2013-10-16 13:08:00,73.7,57.0,30.04,SSE,150,0.0,3.5,56,0.00,CLR,,0.00,WeatherDisplay:10.37,2013-10-16 17:08:00,
2013-10-16 13:09:00,73.6,56.9,30.04,SSE,150,0.0,0.0,56,0.00,CLR,,0.00,WeatherDisplay:10.37,2013-10-16 17:09:00,
2013-10-16 13:10:00,73.2,56.6,30.04,SSE,150,0.0,0.0,56,0.00,CLR,,0.00,WeatherDisplay:10.37,2013-10-16 17:10:00,
2013-10-16 13:11:00,73.6,56.9,30.04,SSE,150,0.0,0.0,56,0.00,CLR,,0.00,WeatherDisplay:10.37,2013-10-16 17:11:00,
2013-10-16 13:12:00,73.3,55.6,30.04,SSE,150,0.0,3.0,54,0.00,CLR,,0.00,WeatherDisplay:10.37,2013-10-16 17:12:00,
2013-10-16 13:13:00,73.3,56.2,30.04,SW,233,2.4,4.6,55,0.00,CLR,,0.00,WeatherDisplay:10.37,2013-10-16 17:13:00,
2013-10-16 13:14:00,73.0,55.4,30.04,SW,233,0.0,3.5,54,0.00,CLR,,0.00,WeatherDisplay:10.37,2013-10-16 17:14:00,
2013-10-16 13:15:00,73.2,55.6,30.04,SW,233,0.0,0.0,54,0.00,CLR,,0.00,WeatherDisplay:10.37,2013-10-16 17:15:00,
2013-10-16 13:16:00,73.2,55.6,30.05,SW,233,0.0,0.0,54,0.00,CLR,,0.00,WeatherDisplay:10.37,2013-10-16 17:16:00,
2013-10-16 13:18:00,72.8,55.2,30.04,SW,233,0.0,0.0,54,0.00,CLR,,0.00,WeatherDisplay:10.37,2013-10-16 17:18:00,
2013-10-16 13:20:00,72.7,55.6,30.05,SW,233,0.0,0.0,55,0.00,CLR,,0.00,WeatherDisplay:10.37,2013-10-16 17:20:00,
2013-10-16 13:21:00,72.8,55.7,30.05,SW,233,0.0,0.0,55,0.00,CLR,,0.00,WeatherDisplay:10.37,2013-10-16 17:21:00,
2013-10-16 13:23:00,73.1,56.5,30.04,SW,233,0.0,0.0,56,0.00,CLR,,0.00,WeatherDisplay:10.37,2013-10-16 17:23:00,
2013-10-16 13:24:00,73.2,56.6,30.04,SW,233,0.0,0.0,56,0.00,CLR,,0.00,WeatherDisplay:10.37,2013-10-16 17:24:00,
2013-10-16 13:25:00,73.0,56.4,30.04,SW,233,0.0,0.0,56,0.00,CLR,,0.00,WeatherDisplay:10.37,2013-10-16 17:25:00,
2013-10-16 13:26:00,73.2,56.6,30.04,SW,233,0.0,0.0,56,0.00,CLR,,0.00,WeatherDisplay:10.37,2013-10-16 17:26:00,
2013-10-16 13:28:00,73.2,56.6,30.04,SW,233,0.0,0.0,56,0.00,CLR,,0.00,WeatherDisplay:10.37,2013-10-16 17:28:00,
2013-10-16 13:29:00,73.3,56.7,30.04,SW,233,0.0,0.0,56,0.00,CLR,,0.00,WeatherDisplay:10.37,2013-10-16 17:29:00,
2013-10-16 13:30:00,73.3,56.7,30.04,SW,233,0.0,0.0,56,0.00,CLR,,0.00,WeatherDisplay:10.37,2013-10-16 17:30:00,
2013-10-16 13:31:00,73.4,56.7,30.03,SW,233,0.0,0.0,56,0.00,CLR,,0.00,WeatherDisplay:10.37,2013-10-16 17:31:00,
2013-10-16 13:32:00,73.7,57.0,30.03,SW,233,0.0,0.0,56,0.00,CLR,,0.00,WeatherDisplay:10.37,2013-10-16 17:32:00,
2013-10-16 13:34:00,73.6,56.9,30.03,SW,233,0.0,0.0,56,0.00,CLR,,0.00,WeatherDisplay:10.37,2013-10-16 17:34:00,
2013-10-16 13:35:00,73.7,56.5,30.03,SW,233,0.0,0.0,55,0.00,CLR,,0.00,WeatherDisplay:10.37,2013-10-16 17:35:00,
2013-10-16 13:37:00,73.9,56.7,30.03,WSW,237,0.0,3.5,55,0.00,CLR,,0.00,WeatherDisplay:10.37,2013-10-16 17:37:00,
2013-10-16 13:39:00,73.7,56.5,30.03,WSW,237,0.0,0.0,55,0.00,CLR,,0.00,WeatherDisplay:10.37,2013-10-16 17:39:00,
2013-10-16 13:40:00,73.7,56.5,30.03,WSW,237,0.0,0.0,55,0.00,CLR,,0.00,WeatherDisplay:10.37,2013-10-16 17:40:00,
2013-10-16 13:42:00,73.5,55.8,30.03,WSW,237,0.0,0.0,54,0.00,CLR,,0.00,WeatherDisplay:10.37,2013-10-16 17:42:00,
2013-10-16 13:44:00,73.3,56.2,30.03,WSW,237,0.0,0.0,55,0.00,CLR,,0.00,WeatherDisplay:10.37,2013-10-16 17:44:00,
2013-10-16 13:45:00,73.5,55.8,30.03,WSW,237,0.0,0.0,54,0.00,CLR,,0.00,WeatherDisplay:10.37,2013-10-16 17:45:00,
2013-10-16 13:47:00,73.6,56.4,30.03,WSW,237,0.0,0.0,55,0.00,CLR,,0.00,WeatherDisplay:10.37,2013-10-16 17:47:00,
2013-10-16 13:49:00,73.4,56.7,30.03,WSW,237,0.0,0.0,56,0.00,CLR,,0.00,WeatherDisplay:10.37,2013-10-16 17:49:00,
2013-10-16 13:50:00,73.1,56.5,30.03,SE,138,1.7,3.4,56,0.00,CLR,,0.00,WeatherDisplay:10.37,2013-10-16 17:50:00,
2013-10-16 13:51:00,73.3,56.7,30.03,SE,126,1.0,4.6,56,0.00,CLR,,0.00,WeatherDisplay:10.37,2013-10-16 17:51:00,
2013-10-16 13:52:00,73.2,56.1,30.03,SE,134,0.7,2.8,55,0.00,CLR,,0.00,WeatherDisplay:10.37,2013-10-16 17:52:00,
2013-10-16 13:54:00,73.2,56.6,30.03,SSE,157,2.6,3.5,56,0.00,CLR,,0.00,WeatherDisplay:10.37,2013-10-16 17:54:00,
2013-10-16 13:55:00,73.1,56.5,30.03,SSE,161,1.5,5.8,56,0.00,CLR,,0.00,WeatherDisplay:10.37,2013-10-16 17:55:00,
2013-10-16 13:57:00,73.4,56.7,30.03,SSW,200,1.7,3.3,56,0.00,CLR,,0.00,WeatherDisplay:10.37,2013-10-16 17:57:00,
2013-10-16 13:59:00,73.3,56.2,30.03,SSW,200,0.0,0.0,55,0.00,CLR,,0.00,WeatherDisplay:10.37,2013-10-16 17:59:00,
2013-10-16 14:00:00,73.2,56.1,30.03,SSW,200,0.0,0.0,55,0.00,CLR,,0.00,WeatherDisplay:10.37,2013-10-16 18:00:00,
2013-10-16 14:01:00,73.3,56.2,30.03,SSW,200,0.0,0.0,55,0.00,CLR,,0.00,WeatherDisplay:10.37,2013-10-16 18:01:00,
2013-10-16 14:02:00,73.5,56.3,30.03,SSW,200,0.0,0.0,55,0.00,CLR,,0.00,WeatherDisplay:10.37,2013-10-16 18:02:00,
2013-10-16 14:04:00,73.4,56.7,30.03,SSW,200,0.0,0.0,56,0.00,CLR,,0.00,WeatherDisplay:10.37,2013-10-16 18:04:00,
2013-10-16 14:05:00,73.7,57.0,30.03,SSW,200,0.0,0.0,56,0.00,CLR,,0.00,WeatherDisplay:10.37,2013-10-16 18:05:00,
2013-10-16 14:06:00,73.5,56.3,30.03,SSW,200,0.0,0.0,55,0.00,CLR,,0.00,WeatherDisplay:10.37,2013-10-16 18:06:00,
2013-10-16 14:07:00,73.3,56.2,30.03,SSW,200,0.0,0.0,55,0.00,CLR,,0.00,WeatherDisplay:10.37,2013-10-16 18:07:00,
2013-10-16 14:08:00,73.4,56.2,30.02,SSW,200,0.0,0.0,55,0.00,CLR,,0.00,WeatherDisplay:10.37,2013-10-16 18:08:00,
2013-10-16 14:10:00,73.4,56.2,30.02,SSW,200,0.0,0.0,55,0.00,CLR,,0.00,WeatherDisplay:10.37,2013-10-16 18:10:00,
2013-10-16 14:11:00,73.6,56.4,30.02,SSW,200,0.0,0.0,55,0.00,CLR,,0.00,WeatherDisplay:10.37,2013-10-16 18:11:00,
2013-10-16 14:13:00,73.6,55.9,30.02,SSW,200,0.0,0.0,54,0.00,CLR,,0.00,WeatherDisplay:10.37,2013-10-16 18:13:00,
2013-10-16 14:15:00,73.9,56.7,30.02,SSW,200,0.2,3.4,55,0.00,CLR,,0.00,WeatherDisplay:10.37,2013-10-16 18:15:00,
2013-10-16 14:16:00,73.9,56.7,30.01,ESE,120,1.7,5.0,55,0.00,CLR,,0.00,WeatherDisplay:10.37,2013-10-16 18:16:00,
2013-10-16 14:17:00,73.8,56.6,30.02,SE,127,3.0,5.8,55,0.00,CLR,,0.00,WeatherDisplay:10.37,2013-10-16 18:17:00,
2013-10-16 14:18:00,73.9,56.7,30.01,SE,127,0.0,0.0,55,0.00,CLR,,0.00,WeatherDisplay:10.37,2013-10-16 18:18:00,
2013-10-16 14:19:00,73.9,56.7,30.01,SE,127,0.0,0.0,55,0.00,CLR,,0.00,WeatherDisplay:10.37,2013-10-16 18:19:00,
2013-10-16 14:21:00,74.0,56.3,30.02,SE,127,0.0,0.0,54,0.00,CLR,,0.00,WeatherDisplay:10.37,2013-10-16 18:21:00,
2013-10-16 14:22:00,74.0,56.8,30.01,SE,127,0.0,0.0,55,0.00,CLR,,0.00,WeatherDisplay:10.37,2013-10-16 18:22:00,
2013-10-16 14:23:00,74.0,56.8,30.01,SE,127,0.0,0.0,55,0.00,CLR,,0.00,WeatherDisplay:10.37,2013-10-16 18:23:00,
2013-10-16 14:24:00,74.0,56.8,30.01,SE,127,0.0,0.0,55,0.00,CLR,,0.00,WeatherDisplay:10.37,2013-10-16 18:24:00,
2013-10-16 14:26:00,73.9,56.2,30.02,SE,127,0.0,0.0,54,0.00,CLR,,0.00,WeatherDisplay:10.37,2013-10-16 18:26:00,
2013-10-16 14:27:00,74.0,56.3,30.02,SE,127,0.0,0.0,54,0.00,CLR,,0.00,WeatherDisplay:10.37,2013-10-16 18:27:00,
2013-10-16 14:28:00,74.0,56.3,30.02,SE,127,0.0,0.0,54,0.00,CLR,,0.00,WeatherDisplay:10.37,2013-10-16 18:28:00,
2013-10-16 14:31:00,74.0,55.8,30.02,SE,127,0.0,0.0,53,0.00,CLR,,0.00,WeatherDisplay:10.37,2013-10-16 18:31:00,
2013-10-16 14:32:00,73.9,56.2,30.02,SE,127,0.0,0.0,54,0.00,CLR,,0.00,WeatherDisplay:10.37,2013-10-16 18:32:00,
2013-10-16 14:33:00,73.9,56.2,30.02,SE,127,0.0,0.0,54,0.00,CLR,,0.00,WeatherDisplay:10.37,2013-10-16 18:33:00,
2013-10-16 14:34:00,73.9,56.2,30.02,SE,127,0.0,0.0,54,0.00,CLR,,0.00,WeatherDisplay:10.37,2013-10-16 18:34:00,
2013-10-16 14:36:00,73.9,56.7,30.02,SE,127,0.0,0.0,55,0.00,CLR,,0.00,WeatherDisplay:10.37,2013-10-16 18:36:00,
2013-10-16 14:37:00,74.0,56.8,30.02,SE,127,0.0,0.0,55,0.00,CLR,,0.00,WeatherDisplay:10.37,2013-10-16 18:37:00,
2013-10-16 14:38:00,73.9,56.7,30.01,SE,127,0.0,0.0,55,0.00,CLR,,0.00,WeatherDisplay:10.37,2013-10-16 18:38:00,
2013-10-16 14:39:00,73.9,56.7,30.01,SE,127,0.0,0.0,55,0.00,CLR,,0.00,WeatherDisplay:10.37,2013-10-16 18:39:00,
2013-10-16 14:41:00,73.5,56.3,30.01,SE,127,0.0,0.0,55,0.00,CLR,,0.00,WeatherDisplay:10.37,2013-10-16 18:41:00,
2013-10-16 14:42:00,74.0,56.8,30.01,SE,127,0.0,0.0,55,0.00,CLR,,0.00,WeatherDisplay:10.37,2013-10-16 18:42:00,
2013-10-16 14:43:00,73.9,56.7,30.01,SE,127,0.0,0.0,55,0.00,CLR,,0.00,WeatherDisplay:10.37,2013-10-16 18:43:00,
2013-10-16 14:44:00,74.0,56.8,30.01,SE,127,0.0,0.0,55,0.00,CLR,,0.00,WeatherDisplay:10.37,2013-10-16 18:44:00,
2013-10-16 14:46:00,74.0,56.8,30.01,SE,127,0.0,0.0,55,0.00,CLR,,0.00,WeatherDisplay:10.37,2013-10-16 18:46:00,
2013-10-16 14:47:00,73.9,56.7,30.02,SE,127,0.0,0.0,55,0.00,CLR,,0.00,WeatherDisplay:10.37,2013-10-16 18:47:00,
2013-10-16 14:48:00,73.9,56.7,30.02,SE,127,0.0,0.0,55,0.00,CLR,,0.00,WeatherDisplay:10.37,2013-10-16 18:48:00,
2013-10-16 14:49:00,73.7,57.0,30.02,SE,127,0.0,0.0,56,0.00,CLR,,0.00,WeatherDisplay:10.37,2013-10-16 18:49:00,
2013-10-16 14:52:00,73.5,56.8,30.02,SE,127,0.0,0.0,56,0.00,CLR,,0.00,WeatherDisplay:10.37,2013-10-16 18:52:00,
2013-10-16 14:53:00,73.5,56.8,30.01,SE,127,0.0,0.0,56,0.00,CLR,,0.00,WeatherDisplay:10.37,2013-10-16 18:53:00,
2013-10-16 14:54:00,73.7,57.0,30.01,SE,127,0.0,0.0,56,0.00,CLR,,0.00,WeatherDisplay:10.37,2013-10-16 18:54:00,
2013-10-16 14:56:00,73.5,56.8,30.01,SE,127,0.0,0.0,56,0.00,CLR,,0.00,WeatherDisplay:10.37,2013-10-16 18:56:00,
2013-10-16 14:57:00,73.2,56.6,30.01,SE,127,0.0,0.0,56,0.00,CLR,,0.00,WeatherDisplay:10.37,2013-10-16 18:57:00,
2013-10-16 14:58:00,73.3,56.7,30.01,SE,127,0.0,0.0,56,0.00,CLR,,0.00,WeatherDisplay:10.37,2013-10-16 18:58:00,
2013-10-16 14:59:00,73.5,56.8,30.01,SE,127,0.0,0.0,56,0.00,CLR,,0.00,WeatherDisplay:10.37,2013-10-16 18:59:00,
2013-10-16 15:00:00,73.4,56.7,30.00,SE,127,0.0,0.0,56,0.00,CLR,,0.00,WeatherDisplay:10.37,2013-10-16 19:00:00,
2013-10-16 15:02:00,73.1,57.0,30.00,SE,127,0.0,0.0,57,0.00,CLR,,0.00,WeatherDisplay:10.37,2013-10-16 19:02:00,
2013-10-16 15:04:00,73.4,57.2,30.00,SE,127,0.0,0.0,57,0.00,CLR,,0.00,WeatherDisplay:10.37,2013-10-16 19:04:00,
2013-10-16 15:05:00,73.2,57.1,30.00,SE,127,0.0,0.0,57,0.00,CLR,,0.00,WeatherDisplay:10.37,2013-10-16 19:05:00,
2013-10-16 15:06:00,73.3,57.1,30.00,SE,127,0.0,0.0,57,0.00,CLR,,0.00,WeatherDisplay:10.37,2013-10-16 19:06:00,
2013-10-16 15:07:00,73.3,57.1,30.00,SE,127,0.0,0.0,57,0.00,CLR,,0.00,WeatherDisplay:10.37,2013-10-16 19:07:00,
2013-10-16 15:08:00,73.2,57.1,30.00,SE,127,0.0,0.0,57,0.00,CLR,,0.00,WeatherDisplay:10.37,2013-10-16 19:08:00,
2013-10-16 15:09:00,73.2,57.1,30.00,SE,127,0.0,0.0,57,0.00,CLR,,0.00,WeatherDisplay:10.37,2013-10-16 19:09:00,
2013-10-16 15:10:00,73.5,56.8,30.00,SE,127,0.0,0.0,56,0.00,CLR,,0.00,WeatherDisplay:10.37,2013-10-16 19:10:00,
2013-10-16 15:11:00,73.7,57.0,30.00,SE,127,0.0,0.0,56,0.00,CLR,,0.00,WeatherDisplay:10.37,2013-10-16 19:11:00,
2013-10-16 15:12:00,73.3,56.7,30.00,SE,127,0.0,0.0,56,0.00,CLR,,0.00,WeatherDisplay:10.37,2013-10-16 19:12:00,
2013-10-16 15:14:00,73.5,56.8,30.00,SE,127,0.0,0.0,56,0.00,CLR,,0.00,WeatherDisplay:10.37,2013-10-16 19:14:00,
2013-10-16 15:15:00,73.6,56.9,30.00,SE,127,0.0,0.0,56,0.00,CLR,,0.00,WeatherDisplay:10.37,2013-10-16 19:15:00,
2013-10-16 15:17:00,73.2,57.1,30.00,SE,127,0.0,0.0,57,0.00,CLR,,0.00,WeatherDisplay:10.37,2013-10-16 19:17:00,
2013-10-16 15:18:00,73.2,57.1,30.00,SE,127,0.0,0.0,57,0.00,CLR,,0.00,WeatherDisplay:10.37,2013-10-16 19:18:00,
2013-10-16 15:19:00,73.0,56.9,30.00,SE,127,0.0,0.0,57,0.00,CLR,,0.00,WeatherDisplay:10.37,2013-10-16 19:19:00,
2013-10-16 15:20:00,73.2,57.5,30.00,SE,127,0.0,0.0,58,0.00,CLR,,0.00,WeatherDisplay:10.37,2013-10-16 19:20:00,
2013-10-16 15:22:00,73.2,57.5,30.00,SE,127,0.0,0.0,58,0.00,CLR,,0.00,WeatherDisplay:10.37,2013-10-16 19:22:00,
2013-10-16 15:23:00,73.2,57.5,30.00,SE,127,0.0,0.0,58,0.00,CLR,,0.00,WeatherDisplay:10.37,2013-10-16 19:23:00,
2013-10-16 15:24:00,73.4,57.7,30.00,SE,127,0.0,0.0,58,0.00,CLR,,0.00,WeatherDisplay:10.37,2013-10-16 19:24:00,
2013-10-16 15:26:00,73.5,57.3,30.00,SE,127,0.0,0.0,57,0.00,CLR,,0.00,WeatherDisplay:10.37,2013-10-16 19:26:00,
2013-10-16 15:27:00,73.6,57.4,30.00,SE,127,0.0,0.0,57,0.00,CLR,,0.00,WeatherDisplay:10.37,2013-10-16 19:27:00,
2013-10-16 15:29:00,73.4,56.7,30.00,SE,127,0.0,0.0,56,0.00,CLR,,0.00,WeatherDisplay:10.37,2013-10-16 19:29:00,
2013-10-16 15:32:00,73.5,57.3,30.01,SE,127,0.0,0.0,57,0.00,CLR,,0.00,WeatherDisplay:10.37,2013-10-16 19:32:00,
2013-10-16 15:33:00,73.4,57.2,30.00,SE,127,0.0,0.0,57,0.00,CLR,,0.00,WeatherDisplay:10.37,2013-10-16 19:33:00,
2013-10-16 15:34:00,73.5,57.3,30.00,SE,127,0.0,0.0,57,0.00,CLR,,0.00,WeatherDisplay:10.37,2013-10-16 19:34:00,
2013-10-16 15:35:00,73.5,57.3,30.00,SE,127,0.0,0.0,57,0.00,CLR,,0.00,WeatherDisplay:10.37,2013-10-16 19:35:00,
2013-10-16 15:37:00,73.7,57.5,30.00,SE,127,0.0,0.0,57,0.00,CLR,,0.00,WeatherDisplay:10.37,2013-10-16 19:37:00,
2013-10-16 15:38:00,73.6,57.4,30.00,SE,127,0.0,0.0,57,0.00,CLR,,0.00,WeatherDisplay:10.37,2013-10-16 19:38:00,
2013-10-16 15:39:00,73.6,57.4,30.00,SE,127,0.0,0.0,57,0.00,CLR,,0.00,WeatherDisplay:10.37,2013-10-16 19:39:00,
2013-10-16 15:40:00,73.6,57.9,30.00,SE,127,0.0,0.0,58,0.00,CLR,,0.00,WeatherDisplay:10.37,2013-10-16 19:40:00,
2013-10-16 15:41:00,73.6,57.9,30.00,SE,127,0.0,0.0,58,0.00,CLR,,0.00,WeatherDisplay:10.37,2013-10-16 19:41:00,
2013-10-16 15:42:00,73.6,57.4,30.00,SE,127,0.0,0.0,57,0.00,CLR,,0.00,WeatherDisplay:10.37,2013-10-16 19:42:00,
2013-10-16 15:43:00,73.7,58.0,30.01,SE,127,0.0,0.0,58,0.00,CLR,,0.00,WeatherDisplay:10.37,2013-10-16 19:43:00,
2013-10-16 15:44:00,73.5,57.3,30.00,SE,127,0.0,0.0,57,0.00,CLR,,0.00,WeatherDisplay:10.37,2013-10-16 19:44:00,
2013-10-16 15:45:00,73.6,57.4,30.01,SE,127,0.0,0.0,57,0.00,CLR,,0.00,WeatherDisplay:10.37,2013-10-16 19:45:00,
2013-10-16 15:47:00,73.7,57.5,30.00,SE,127,0.0,0.0,57,0.00,CLR,,0.00,WeatherDisplay:10.37,2013-10-16 19:47:00,
2013-10-16 15:48:00,73.7,57.0,30.00,SE,127,0.0,0.0,56,0.00,CLR,,0.00,WeatherDisplay:10.37,2013-10-16 19:48:00,
2013-10-16 15:49:00,73.9,57.2,30.00,SE,127,0.0,0.0,56,0.00,CLR,,0.00,WeatherDisplay:10.37,2013-10-16 19:49:00,
2013-10-16 15:50:00,73.9,57.2,30.00,SE,127,0.0,0.0,56,0.00,CLR,,0.00,WeatherDisplay:10.37,2013-10-16 19:50:00,
2013-10-16 15:52:00,74.0,57.3,30.00,SE,127,0.0,0.0,56,0.00,CLR,,0.00,WeatherDisplay:10.37,2013-10-16 19:52:00,
2013-10-16 15:54:00,74.0,57.3,30.00,SE,127,0.0,0.0,56,0.00,CLR,,0.00,WeatherDisplay:10.37,2013-10-16 19:54:00,
2013-10-16 15:55:00,74.0,57.3,30.00,SE,127,0.0,0.0,56,0.00,CLR,,0.00,WeatherDisplay:10.37,2013-10-16 19:55:00,
2013-10-16 15:56:00,74.0,57.3,30.00,SE,127,0.0,0.0,56,0.00,CLR,,0.00,WeatherDisplay:10.37,2013-10-16 19:56:00,
2013-10-16 15:57:00,74.0,57.3,30.00,SE,127,0.0,0.0,56,0.00,CLR,,0.00,WeatherDisplay:10.37,2013-10-16 19:57:00,
2013-10-16 15:58:00,74.0,57.3,30.00,SE,127,0.0,0.0,56,0.00,CLR,,0.00,WeatherDisplay:10.37,2013-10-16 19:58:00,
2013-10-16 15:59:00,74.0,57.3,30.00,SE,127,0.0,0.0,56,0.00,CLR,,0.00,WeatherDisplay:10.37,2013-10-16 19:59:00,
2013-10-16 16:00:00,74.0,57.3,30.00,SE,127,0.0,0.0,56,0.00,CLR,,0.00,WeatherDisplay:10.37,2013-10-16 20:00:00,
2013-10-16 16:01:00,74.0,57.3,30.00,SE,127,0.0,0.0,56,0.00,CLR,,0.00,WeatherDisplay:10.37,2013-10-16 20:01:00,
2013-10-16 16:02:00,74.0,57.3,30.00,SE,127,0.0,0.0,56,0.00,CLR,,0.00,WeatherDisplay:10.37,2013-10-16 20:02:00,
2013-10-16 16:03:00,74.0,57.3,30.00,SE,127,0.0,0.0,56,0.00,CLR,,0.00,WeatherDisplay:10.37,2013-10-16 20:03:00,
2013-10-16 16:04:00,74.0,57.3,30.00,SE,127,0.0,0.0,56,0.00,CLR,,0.00,WeatherDisplay:10.37,2013-10-16 20:04:00,
2013-10-16 16:05:00,74.0,57.3,29.99,SE,127,0.0,0.0,56,0.00,CLR,,0.00,WeatherDisplay:10.37,2013-10-16 20:05:00,
2013-10-16 16:06:00,74.0,57.3,29.99,SE,127,0.0,0.0,56,0.00,CLR,,0.00,WeatherDisplay:10.37,2013-10-16 20:06:00,
2013-10-16 16:07:00,74.0,57.3,29.99,SE,127,0.0,0.0,56,0.00,CLR,,0.00,WeatherDisplay:10.37,2013-10-16 20:07:00,
2013-10-16 16:08:00,73.8,57.1,29.99,SE,127,0.0,0.0,56,0.00,CLR,,0.00,WeatherDisplay:10.37,2013-10-16 20:08:00,
2013-10-16 16:09:00,73.9,57.2,29.99,SE,127,0.0,0.0,56,0.00,CLR,,0.00,WeatherDisplay:10.37,2013-10-16 20:09:00,
2013-10-16 16:10:00,73.9,57.2,29.99,SE,127,0.0,0.0,56,0.00,CLR,,0.00,WeatherDisplay:10.37,2013-10-16 20:10:00,
2013-10-16 16:12:00,73.7,57.0,29.99,SE,127,0.0,0.0,56,0.00,CLR,,0.00,WeatherDisplay:10.37,2013-10-16 20:12:00,
2013-10-16 16:13:00,73.8,57.1,29.98,NE,34,2.7,5.8,56,0.00,CLR,,0.00,WeatherDisplay:10.37,2013-10-16 20:13:00,
2013-10-16 16:14:00,73.9,57.2,29.98,ESE,103,3.9,5.8,56,0.00,CLR,,0.00,WeatherDisplay:10.37,2013-10-16 20:14:00,
2013-10-16 16:15:00,73.7,57.5,29.98,ESE,103,1.7,5.8,57,0.00,CLR,,0.00,WeatherDisplay:10.37,2013-10-16 20:15:00,
2013-10-16 16:16:00,73.5,57.3,29.99,ESE,103,0.0,0.0,57,0.00,CLR,,0.00,WeatherDisplay:10.37,2013-10-16 20:16:00,
2013-10-16 16:17:00,73.8,57.6,29.99,ESE,103,0.0,0.0,57,0.00,CLR,,0.00,WeatherDisplay:10.37,2013-10-16 20:17:00,
2013-10-16 16:18:00,73.8,58.1,29.99,ESE,103,0.0,0.0,58,0.00,CLR,,0.00,WeatherDisplay:10.37,2013-10-16 20:18:00,
2013-10-16 16:19:00,73.7,58.0,29.99,ESE,103,0.0,0.0,58,0.00,CLR,,0.00,WeatherDisplay:10.37,2013-10-16 20:19:00,
2013-10-16 16:20:00,73.8,58.1,29.99,ESE,103,0.0,0.0,58,0.00,CLR,,0.00,WeatherDisplay:10.37,2013-10-16 20:20:00,
2013-10-16 16:21:00,73.5,57.8,29.99,East,96,0.9,3.3,58,0.00,CLR,,0.00,WeatherDisplay:10.37,2013-10-16 20:21:00,
2013-10-16 16:22:00,73.4,57.7,29.99,ESE,114,3.6,5.8,58,0.00,CLR,,0.00,WeatherDisplay:10.37,2013-10-16 20:22:00,
2013-10-16 16:24:00,73.5,57.3,29.99,ESE,114,0.0,4.6,57,0.00,CLR,,0.00,WeatherDisplay:10.37,2013-10-16 20:24:00,
2013-10-16 16:25:00,73.5,57.3,29.99,ESE,107,0.5,2.3,57,0.00,CLR,,0.00,WeatherDisplay:10.37,2013-10-16 20:25:00,
2013-10-16 16:26:00,73.3,57.1,29.99,ESE,107,0.0,3.5,57,0.00,CLR,,0.00,WeatherDisplay:10.37,2013-10-16 20:26:00,
2013-10-16 16:27:00,73.5,57.3,29.99,ESE,107,0.0,0.0,57,0.00,CLR,,0.00,WeatherDisplay:10.37,2013-10-16 20:27:00,
2013-10-16 16:29:00,73.6,57.4,29.99,ESE,107,0.0,0.0,57,0.00,CLR,,0.00,WeatherDisplay:10.37,2013-10-16 20:29:00,
2013-10-16 16:30:00,73.5,57.3,29.99,SE,137,0.8,3.5,57,0.00,CLR,,0.00,WeatherDisplay:10.37,2013-10-16 20:30:00,
2013-10-16 16:32:00,73.3,56.7,29.99,SE,137,0.0,0.0,56,0.00,CLR,,0.00,WeatherDisplay:10.37,2013-10-16 20:32:00,
2013-10-16 16:33:00,73.6,56.9,29.99,SE,137,0.0,0.0,56,0.00,CLR,,0.00,WeatherDisplay:10.37,2013-10-16 20:33:00,
2013-10-16 16:34:00,73.5,56.8,29.99,ESE,102,0.8,0.0,56,0.00,CLR,,0.00,WeatherDisplay:10.37,2013-10-16 20:34:00,
2013-10-16 16:35:00,73.6,56.9,29.99,ESE,102,0.8,0.0,56,0.00,CLR,,0.00,WeatherDisplay:10.37,2013-10-16 20:35:00,
2013-10-16 16:36:00,73.6,56.9,29.99,ENE,75,1.3,4.6,56,0.00,CLR,,0.00,WeatherDisplay:10.37,2013-10-16 20:36:00,
2013-10-16 16:38:00,73.5,56.8,29.99,East,95,1.7,4.6,56,0.00,CLR,,0.00,WeatherDisplay:10.37,2013-10-16 20:38:00,
2013-10-16 16:39:00,73.4,56.7,29.99,East,96,1.7,5.8,56,0.00,CLR,,0.00,WeatherDisplay:10.37,2013-10-16 20:39:00,
2013-10-16 16:40:00,73.4,56.7,29.99,East,96,1.0,5.8,56,0.00,CLR,,0.00,WeatherDisplay:10.37,2013-10-16 20:40:00,
2013-10-16 16:41:00,73.3,56.7,29.99,East,96,0.0,4.6,56,0.00,CLR,,0.00,WeatherDisplay:10.37,2013-10-16 20:41:00,
2013-10-16 16:43:00,73.3,56.7,29.99,East,96,0.0,0.0,56,0.00,CLR,,0.00,WeatherDisplay:10.37,2013-10-16 20:43:00,
2013-10-16 16:44:00,73.2,56.6,29.99,East,96,0.0,0.0,56,0.00,CLR,,0.00,WeatherDisplay:10.37,2013-10-16 20:44:00,
2013-10-16 16:45:00,73.1,56.5,29.99,East,99,0.4,0.0,56,0.00,CLR,,0.00,WeatherDisplay:10.37,2013-10-16 20:45:00,
2013-10-16 16:46:00,73.3,56.7,29.99,East,99,0.4,2.3,56,0.00,CLR,,0.00,WeatherDisplay:10.37,2013-10-16 20:46:00,
2013-10-16 16:48:00,73.2,57.1,29.99,East,99,0.0,0.0,57,0.00,CLR,,0.00,WeatherDisplay:10.37,2013-10-16 20:48:00,
2013-10-16 16:50:00,72.9,56.8,29.99,East,99,0.0,0.0,57,0.00,CLR,,0.00,WeatherDisplay:10.37,2013-10-16 20:50:00,
2013-10-16 16:51:00,72.7,56.6,29.99,East,99,0.0,0.0,57,0.00,CLR,,0.00,WeatherDisplay:10.37,2013-10-16 20:51:00,
2013-10-16 16:53:00,73.1,57.0,29.99,North,8,0.0,0.0,57,0.00,CLR,,0.00,WeatherDisplay:10.37,2013-10-16 20:53:00,
2013-10-16 16:54:00,73.0,56.9,29.99,SE,133,0.6,3.0,57,0.00,CLR,,0.00,WeatherDisplay:10.37,2013-10-16 20:54:00,
2013-10-16 16:55:00,73.2,57.1,29.99,SE,133,0.0,3.5,57,0.00,CLR,,0.00,WeatherDisplay:10.37,2013-10-16 20:55:00,
2013-10-16 16:56:00,73.2,57.1,29.99,SE,133,0.0,3.5,57,0.00,CLR,,0.00,WeatherDisplay:10.37,2013-10-16 20:56:00,
2013-10-16 16:58:00,72.7,56.6,29.99,SE,133,0.0,0.0,57,0.00,CLR,,0.00,WeatherDisplay:10.37,2013-10-16 20:58:00,
2013-10-16 16:59:00,72.8,56.7,29.99,SE,133,0.0,0.0,57,0.00,CLR,,0.00,WeatherDisplay:10.37,2013-10-16 20:59:00,
2013-10-16 17:01:00,72.9,57.3,29.99,SE,133,0.0,0.0,58,0.00,CLR,,0.00,WeatherDisplay:10.37,2013-10-16 21:01:00,
2013-10-16 17:03:00,72.8,57.2,29.99,SE,133,0.0,0.0,58,0.00,CLR,,0.00,WeatherDisplay:10.37,2013-10-16 21:03:00,
2013-10-16 17:04:00,72.7,57.1,29.99,SE,133,0.0,0.0,58,0.00,CLR,,0.00,WeatherDisplay:10.37,2013-10-16 21:04:00,
2013-10-16 17:06:00,72.7,57.1,29.99,SE,133,0.0,0.0,58,0.00,CLR,,0.00,WeatherDisplay:10.37,2013-10-16 21:06:00,
2013-10-16 17:08:00,72.8,57.2,29.99,SE,133,0.0,0.0,58,0.00,CLR,,0.00,WeatherDisplay:10.37,2013-10-16 21:08:00,
2013-10-16 17:09:00,72.6,57.0,29.99,SE,133,0.0,0.0,58,0.00,CLR,,0.00,WeatherDisplay:10.37,2013-10-16 21:09:00,
2013-10-16 17:11:00,72.2,57.1,29.99,SE,133,0.0,0.0,59,0.00,CLR,,0.00,WeatherDisplay:10.37,2013-10-16 21:11:00,
2013-10-16 17:12:00,72.2,57.1,29.99,SE,133,0.0,0.0,59,0.00,CLR,,0.00,WeatherDisplay:10.37,2013-10-16 21:12:00,
2013-10-16 17:13:00,72.4,57.3,29.99,SE,133,0.0,0.0,59,0.00,CLR,,0.00,WeatherDisplay:10.37,2013-10-16 21:13:00,
2013-10-16 17:14:00,72.5,57.4,29.99,SE,133,0.0,0.0,59,0.00,CLR,,0.00,WeatherDisplay:10.37,2013-10-16 21:14:00,
2013-10-16 17:16:00,72.5,57.4,29.99,SE,133,0.0,0.0,59,0.00,CLR,,0.00,WeatherDisplay:10.37,2013-10-16 21:16:00,
2013-10-16 17:17:00,72.4,57.3,29.99,SE,133,0.0,0.0,59,0.00,CLR,,0.00,WeatherDisplay:10.37,2013-10-16 21:17:00,
2013-10-16 17:18:00,72.3,57.6,29.99,SE,133,0.0,0.0,60,0.00,CLR,,0.00,WeatherDisplay:10.37,2013-10-16 21:18:00,
2013-10-16 17:19:00,72.1,57.4,29.99,SE,133,0.0,0.0,60,0.00,CLR,,0.00,WeatherDisplay:10.37,2013-10-16 21:19:00,
2013-10-16 17:21:00,72.0,57.4,29.99,SE,133,0.0,0.0,60,0.00,CLR,,0.00,WeatherDisplay:10.37,2013-10-16 21:21:00,
2013-10-16 17:22:00,72.0,57.4,29.99,SE,133,0.0,0.0,60,0.00,CLR,,0.00,WeatherDisplay:10.37,2013-10-16 21:22:00,
2013-10-16 17:23:00,72.1,57.4,29.99,SE,133,0.0,0.0,60,0.00,CLR,,0.00,WeatherDisplay:10.37,2013-10-16 21:23:00,
2013-10-16 17:24:00,72.3,57.6,29.99,SE,133,0.0,0.0,60,0.00,CLR,,0.00,WeatherDisplay:10.37,2013-10-16 21:24:00,
2013-10-16 17:27:00,72.3,58.1,29.99,SE,133,0.0,0.0,61,0.00,CLR,,0.00,WeatherDisplay:10.37,2013-10-16 21:27:00,
2013-10-16 17:29:00,72.2,58.0,29.99,SE,133,0.0,0.0,61,0.00,CLR,,0.00,WeatherDisplay:10.37,2013-10-16 21:29:00,
2013-10-16 17:32:00,72.0,57.8,29.99,East,100,1.0,4.6,61,0.00,CLR,,0.00,WeatherDisplay:10.37,2013-10-16 21:32:00,
2013-10-16 17:33:00,72.3,58.1,29.99,East,82,1.5,4.5,61,0.00,CLR,,0.00,WeatherDisplay:10.37,2013-10-16 21:33:00,
2013-10-16 17:34:00,72.1,57.9,29.99,SE,137,1.6,8.1,61,0.00,CLR,,0.00,WeatherDisplay:10.37,2013-10-16 21:34:00,
2013-10-16 17:35:00,72.1,57.9,29.99,SE,137,0.1,8.1,61,0.00,CLR,,0.00,WeatherDisplay:10.37,2013-10-16 21:35:00,
2013-10-16 17:37:00,72.3,58.1,29.99,North,1,0.0,0.0,61,0.00,CLR,,0.00,WeatherDisplay:10.37,2013-10-16 21:37:00,
2013-10-16 17:38:00,72.1,57.9,29.99,North,1,0.0,0.0,61,0.00,CLR,,0.00,WeatherDisplay:10.37,2013-10-16 21:38:00,
2013-10-16 17:39:00,72.1,57.9,29.99,North,1,0.0,0.0,61,0.00,CLR,,0.00,WeatherDisplay:10.37,2013-10-16 21:39:00,
2013-10-16 17:40:00,72.0,58.3,29.99,North,1,0.0,0.0,62,0.00,CLR,,0.00,WeatherDisplay:10.37,2013-10-16 21:40:00,
2013-10-16 17:42:00,71.7,58.0,29.99,East,90,0.9,3.5,62,0.00,CLR,,0.00,WeatherDisplay:10.37,2013-10-16 21:42:00,
2013-10-16 17:44:00,71.6,57.9,29.99,ENE,78,2.2,4.6,62,0.00,CLR,,0.00,WeatherDisplay:10.37,2013-10-16 21:44:00,
2013-10-16 17:45:00,71.5,57.8,29.99,ENE,78,0.0,0.0,62,0.00,CLR,,0.00,WeatherDisplay:10.37,2013-10-16 21:45:00,
2013-10-16 17:46:00,71.5,57.8,29.99,ENE,78,0.0,0.0,62,0.00,CLR,,0.00,WeatherDisplay:10.37,2013-10-16 21:46:00,
2013-10-16 17:47:00,71.5,57.8,29.99,ENE,78,0.0,0.0,62,0.00,CLR,,0.00,WeatherDisplay:10.37,2013-10-16 21:47:00,
2013-10-16 17:49:00,71.3,58.1,29.99,ENE,78,0.0,0.0,63,0.00,CLR,,0.00,WeatherDisplay:10.37,2013-10-16 21:49:00,
2013-10-16 17:50:00,71.6,58.3,29.99,ENE,78,0.0,0.0,63,0.00,CLR,,0.00,WeatherDisplay:10.37,2013-10-16 21:50:00,
2013-10-16 17:51:00,71.4,58.1,29.99,ENE,78,0.0,0.0,63,0.00,CLR,,0.00,WeatherDisplay:10.37,2013-10-16 21:51:00,
2013-10-16 17:52:00,71.6,58.3,29.99,ENE,78,0.0,0.0,63,0.00,CLR,,0.00,WeatherDisplay:10.37,2013-10-16 21:52:00,
2013-10-16 17:55:00,71.3,58.1,29.99,ENE,78,0.0,0.0,63,0.00,CLR,,0.00,WeatherDisplay:10.37,2013-10-16 21:55:00,
2013-10-16 17:56:00,71.2,58.4,29.99,ENE,78,0.0,0.0,64,0.00,CLR,,0.00,WeatherDisplay:10.37,2013-10-16 21:56:00,
2013-10-16 17:57:00,71.4,58.6,30.00,ENE,78,0.0,0.0,64,0.00,CLR,,0.00,WeatherDisplay:10.37,2013-10-16 21:57:00,
2013-10-16 18:00:00,71.2,58.8,30.00,ENE,78,0.0,0.0,65,0.00,CLR,,0.00,WeatherDisplay:10.37,2013-10-16 22:00:00,
2013-10-16 18:01:00,71.3,58.5,30.00,ENE,78,0.0,0.0,64,0.00,CLR,,0.00,WeatherDisplay:10.37,2013-10-16 22:01:00,
2013-10-16 18:02:00,71.1,58.7,30.00,ENE,78,0.0,0.0,65,0.00,CLR,,0.00,WeatherDisplay:10.37,2013-10-16 22:02:00,
2013-10-16 18:06:00,71.0,58.6,30.00,ENE,78,0.0,0.0,65,0.00,CLR,,0.00,WeatherDisplay:10.37,2013-10-16 22:06:00,
2013-10-16 18:07:00,70.8,58.4,30.00,ENE,78,0.0,0.0,65,0.00,CLR,,0.00,WeatherDisplay:10.37,2013-10-16 22:07:00,
2013-10-16 18:08:00,71.1,58.7,30.00,ENE,78,0.0,0.0,65,0.00,CLR,,0.00,WeatherDisplay:10.37,2013-10-16 22:08:00,
2013-10-16 18:11:00,70.6,58.7,30.00,ENE,78,0.0,0.0,66,0.00,CLR,,0.00,WeatherDisplay:10.37,2013-10-16 22:11:00,
2013-10-16 18:12:00,70.8,58.9,29.99,ENE,78,0.0,0.0,66,0.00,CLR,,0.00,WeatherDisplay:10.37,2013-10-16 22:12:00,
2013-10-16 18:13:00,70.9,59.0,29.99,ENE,78,0.0,0.0,66,0.00,CLR,,0.00,WeatherDisplay:10.37,2013-10-16 22:13:00,
2013-10-16 18:14:00,70.8,58.9,29.99,ENE,78,0.0,0.0,66,0.00,CLR,,0.00,WeatherDisplay:10.37,2013-10-16 22:14:00,
2013-10-16 18:16:00,70.7,58.8,29.99,North,10,0.0,0.0,66,0.00,CLR,,0.00,WeatherDisplay:10.37,2013-10-16 22:16:00,
2013-10-16 18:17:00,70.8,58.9,29.99,North,10,0.0,0.0,66,0.00,CLR,,0.00,WeatherDisplay:10.37,2013-10-16 22:17:00,
2013-10-16 18:18:00,70.9,59.0,29.99,North,10,0.0,0.0,66,0.00,CLR,,0.00,WeatherDisplay:10.37,2013-10-16 22:18:00,
2013-10-16 18:19:00,70.6,58.7,29.99,North,10,0.0,0.0,66,0.00,CLR,,0.00,WeatherDisplay:10.37,2013-10-16 22:19:00,
2013-10-16 18:21:00,70.4,58.9,29.99,North,10,0.0,0.0,67,0.00,CLR,,0.00,WeatherDisplay:10.37,2013-10-16 22:21:00,
2013-10-16 18:22:00,70.7,59.2,29.99,North,10,0.0,0.0,67,0.00,CLR,,0.00,WeatherDisplay:10.37,2013-10-16 22:22:00,
2013-10-16 18:23:00,70.5,59.0,29.99,North,10,0.0,0.0,67,0.00,CLR,,0.00,WeatherDisplay:10.37,2013-10-16 22:23:00,
2013-10-16 18:24:00,70.5,59.4,30.00,North,10,0.0,0.0,68,0.00,CLR,,0.00,WeatherDisplay:10.37,2013-10-16 22:24:00,
2013-10-16 18:27:00,70.2,59.1,30.00,North,10,0.0,0.0,68,0.00,CLR,,0.00,WeatherDisplay:10.37,2013-10-16 22:27:00,
2013-10-16 18:28:00,70.4,59.3,30.00,North,10,0.0,0.0,68,0.00,CLR,,0.00,WeatherDisplay:10.37,2013-10-16 22:28:00,
2013-10-16 18:29:00,70.2,59.1,30.00,North,10,0.0,0.0,68,0.00,CLR,,0.00,WeatherDisplay:10.37,2013-10-16 22:29:00,
2013-10-16 18:32:00,70.4,59.3,30.00,North,10,0.0,0.0,68,0.00,CLR,,0.00,WeatherDisplay:10.37,2013-10-16 22:32:00,
2013-10-16 18:33:00,70.1,59.0,30.00,North,10,0.0,0.0,68,0.00,CLR,,0.00,WeatherDisplay:10.37,2013-10-16 22:33:00,
2013-10-16 18:34:00,69.8,59.2,30.00,North,10,0.0,0.0,69,0.00,CLR,,0.00,WeatherDisplay:10.37,2013-10-16 22:34:00,
2013-10-16 18:35:00,70.1,59.5,30.00,North,10,0.0,0.0,69,0.00,CLR,,0.00,WeatherDisplay:10.37,2013-10-16 22:35:00,
2013-10-16 18:37:00,69.6,59.0,30.00,North,10,0.0,0.0,69,0.00,CLR,,0.00,WeatherDisplay:10.37,2013-10-16 22:37:00,
2013-10-16 18:38:00,70.1,59.5,30.00,North,10,0.0,0.0,69,0.00,CLR,,0.00,WeatherDisplay:10.37,2013-10-16 22:38:00,
2013-10-16 18:39:00,69.8,59.2,30.00,North,10,0.0,0.0,69,0.00,CLR,,0.00,WeatherDisplay:10.37,2013-10-16 22:39:00,
2013-10-16 18:41:00,69.6,59.4,30.00,North,10,0.0,0.0,70,0.00,CLR,,0.00,WeatherDisplay:10.37,2013-10-16 22:41:00,
2013-10-16 18:42:00,69.8,59.6,30.00,North,10,0.0,0.0,70,0.00,CLR,,0.00,WeatherDisplay:10.37,2013-10-16 22:42:00,
2013-10-16 18:43:00,69.5,59.3,30.00,North,10,0.0,0.0,70,0.00,CLR,,0.00,WeatherDisplay:10.37,2013-10-16 22:43:00,
2013-10-16 18:44:00,69.6,59.4,30.00,North,10,0.0,0.0,70,0.00,CLR,,0.00,WeatherDisplay:10.37,2013-10-16 22:44:00,
2013-10-16 18:46:00,69.5,59.3,30.00,North,10,0.0,0.0,70,0.00,CLR,,0.00,WeatherDisplay:10.37,2013-10-16 22:46:00,
2013-10-16 18:48:00,69.4,59.6,30.00,North,10,0.0,0.0,71,0.00,CLR,,0.00,WeatherDisplay:10.37,2013-10-16 22:48:00,
2013-10-16 18:49:00,69.5,59.7,30.00,North,10,0.0,0.0,71,0.00,CLR,,0.00,WeatherDisplay:10.37,2013-10-16 22:49:00,
2013-10-16 18:51:00,69.6,59.8,30.00,North,10,0.0,0.0,71,0.00,CLR,,0.00,WeatherDisplay:10.37,2013-10-16 22:51:00,
2013-10-16 18:53:00,69.5,59.7,30.00,North,10,0.0,0.0,71,0.00,CLR,,0.00,WeatherDisplay:10.37,2013-10-16 22:53:00,
2013-10-16 18:54:00,69.3,59.5,30.00,North,10,0.0,0.0,71,0.00,CLR,,0.00,WeatherDisplay:10.37,2013-10-16 22:54:00,
2013-10-16 18:55:00,69.5,59.7,30.00,North,10,0.0,0.0,71,0.00,CLR,,0.00,WeatherDisplay:10.37,2013-10-16 22:55:00,
2013-10-16 18:56:00,69.5,60.1,30.00,North,10,0.0,0.0,72,0.00,CLR,,0.00,WeatherDisplay:10.37,2013-10-16 22:56:00,
2013-10-16 18:58:00,69.2,59.8,30.00,North,10,0.0,0.0,72,0.00,CLR,,0.00,WeatherDisplay:10.37,2013-10-16 22:58:00,
2013-10-16 18:59:00,69.1,59.7,30.00,North,10,0.0,0.0,72,0.00,CLR,,0.00,WeatherDisplay:10.37,2013-10-16 22:59:00,
2013-10-16 19:00:00,69.0,59.6,30.00,North,10,0.0,0.0,72,0.00,CLR,,0.00,WeatherDisplay:10.37,2013-10-16 23:00:00,
2013-10-16 19:01:00,68.9,59.5,30.00,North,10,0.0,0.0,72,0.00,CLR,,0.00,WeatherDisplay:10.37,2013-10-16 23:01:00,
2013-10-16 19:03:00,68.9,59.5,30.00,North,10,0.0,0.0,72,0.00,CLR,,0.00,WeatherDisplay:10.37,2013-10-16 23:03:00,
2013-10-16 19:04:00,68.8,59.4,30.00,North,10,0.0,0.0,72,0.00,CLR,,0.00,WeatherDisplay:10.37,2013-10-16 23:04:00,
2013-10-16 19:05:00,69.1,59.7,30.00,North,10,0.0,0.0,72,0.00,CLR,,0.00,WeatherDisplay:10.37,2013-10-16 23:05:00,
2013-10-16 19:08:00,68.9,59.9,30.00,North,10,0.0,0.0,73,0.00,CLR,,0.00,WeatherDisplay:10.37,2013-10-16 23:08:00,
2013-10-16 19:09:00,69.0,60.0,30.00,North,10,0.0,0.0,73,0.00,CLR,,0.00,WeatherDisplay:10.37,2013-10-16 23:09:00,
2013-10-16 19:10:00,68.6,59.6,30.00,North,10,0.0,0.0,73,0.00,CLR,,0.00,WeatherDisplay:10.37,2013-10-16 23:10:00,
2013-10-16 19:13:00,68.5,59.5,30.00,North,10,0.0,0.0,73,0.00,CLR,,0.00,WeatherDisplay:10.37,2013-10-16 23:13:00,
2013-10-16 19:14:00,68.8,59.8,30.00,North,10,0.0,0.0,73,0.00,CLR,,0.00,WeatherDisplay:10.37,2013-10-16 23:14:00,
2013-10-16 19:15:00,68.6,59.6,30.00,North,10,0.0,0.0,73,0.00,CLR,,0.00,WeatherDisplay:10.37,2013-10-16 23:15:00,
2013-10-16 19:19:00,68.4,59.8,30.00,North,10,0.0,0.0,74,0.00,CLR,,0.00,WeatherDisplay:10.37,2013-10-16 23:19:00,
2013-10-16 19:20:00,68.2,59.6,30.00,North,10,0.0,0.0,74,0.00,CLR,,0.00,WeatherDisplay:10.37,2013-10-16 23:20:00,
2013-10-16 19:24:00,68.2,59.6,30.00,North,10,0.0,0.0,74,0.00,CLR,,0.00,WeatherDisplay:10.37,2013-10-16 23:24:00,
2013-10-16 19:25:00,68.4,60.2,30.00,North,10,0.0,0.0,75,0.00,CLR,,0.00,WeatherDisplay:10.37,2013-10-16 23:25:00,
2013-10-16 19:26:00,68.0,59.8,30.00,North,10,0.0,0.0,75,0.00,CLR,,0.00,WeatherDisplay:10.37,2013-10-16 23:26:00,
2013-10-16 19:29:00,68.3,60.1,30.00,North,10,0.0,0.0,75,0.00,CLR,,0.00,WeatherDisplay:10.37,2013-10-16 23:29:00,
2013-10-16 19:30:00,68.0,59.8,30.00,North,10,0.0,0.0,75,0.00,CLR,,0.00,WeatherDisplay:10.37,2013-10-16 23:30:00,
2013-10-16 19:31:00,68.2,60.0,30.00,North,10,0.0,0.0,75,0.00,CLR,,0.00,WeatherDisplay:10.37,2013-10-16 23:31:00,
2013-10-16 19:34:00,68.1,59.9,29.99,North,10,0.0,0.0,75,0.00,CLR,,0.00,WeatherDisplay:10.37,2013-10-16 23:34:00,
2013-10-16 19:35:00,68.0,59.8,29.99,North,10,0.0,0.0,75,0.00,CLR,,0.00,WeatherDisplay:10.37,2013-10-16 23:35:00,
2013-10-16 19:36:00,68.0,60.2,30.00,North,10,0.0,0.0,76,0.00,CLR,,0.00,WeatherDisplay:10.37,2013-10-16 23:36:00,
2013-10-16 19:37:00,67.7,59.9,30.00,North,10,0.0,0.0,76,0.00,CLR,,0.00,WeatherDisplay:10.37,2013-10-16 23:37:00,
2013-10-16 19:39:00,67.8,60.0,30.00,ENE,71,1.3,3.5,76,0.00,CLR,,0.00,WeatherDisplay:10.37,2013-10-16 23:39:00,
2013-10-16 19:40:00,67.8,60.0,30.00,ENE,71,0.4,3.5,76,0.00,CLR,,0.00,WeatherDisplay:10.37,2013-10-16 23:40:00,
2013-10-16 19:41:00,67.7,59.9,30.00,ENE,71,0.0,0.0,76,0.00,CLR,,0.00,WeatherDisplay:10.37,2013-10-16 23:41:00,
2013-10-16 19:42:00,67.7,59.9,30.00,ENE,71,0.0,0.0,76,0.00,CLR,,0.00,WeatherDisplay:10.37,2013-10-16 23:42:00,
2013-10-16 19:44:00,67.3,59.5,30.00,ENE,71,0.0,0.0,76,0.00,CLR,,0.00,WeatherDisplay:10.37,2013-10-16 23:44:00,
2013-10-16 19:45:00,67.6,59.8,30.00,ENE,71,0.0,0.0,76,0.00,CLR,,0.00,WeatherDisplay:10.37,2013-10-16 23:45:00,
2013-10-16 19:46:00,67.6,59.8,30.00,ENE,71,0.0,0.0,76,0.00,CLR,,0.00,WeatherDisplay:10.37,2013-10-16 23:46:00,
2013-10-16 19:47:00,67.9,60.1,30.00,ENE,71,0.0,0.0,76,0.00,CLR,,0.00,WeatherDisplay:10.37,2013-10-16 23:47:00,
2013-10-16 19:50:00,67.8,60.0,30.00,ENE,71,0.0,0.0,76,0.00,CLR,,0.00,WeatherDisplay:10.37,2013-10-16 23:50:00,
2013-10-16 19:51:00,67.2,59.7,30.00,ENE,71,0.0,0.0,77,0.00,CLR,,0.00,WeatherDisplay:10.37,2013-10-16 23:51:00,
2013-10-16 19:52:00,67.3,59.8,30.00,ENE,71,0.0,0.0,77,0.00,CLR,,0.00,WeatherDisplay:10.37,2013-10-16 23:52:00,
2013-10-16 19:55:00,67.5,60.0,30.00,ENE,71,0.0,0.0,77,0.00,CLR,,0.00,WeatherDisplay:10.37,2013-10-16 23:55:00,
2013-10-16 19:56:00,67.4,59.9,30.00,ENE,71,0.0,0.0,77,0.00,CLR,,0.00,WeatherDisplay:10.37,2013-10-16 23:56:00,
2013-10-16 19:57:00,67.4,59.9,30.00,ENE,71,0.0,0.0,77,0.00,CLR,,0.00,WeatherDisplay:10.37,2013-10-16 23:57:00,
2013-10-16 20:00:00,67.1,59.6,30.01,ENE,71,0.0,0.0,77,0.00,CLR,,0.00,WeatherDisplay:10.37,2013-10-17 00:00:00,
2013-10-16 20:01:00,67.3,59.8,30.01,ENE,71,0.0,0.0,77,0.00,CLR,,0.00,WeatherDisplay:10.37,2013-10-17 00:01:00,
2013-10-16 20:02:00,67.4,59.9,30.01,ENE,71,0.0,0.0,77,0.00,CLR,,0.00,WeatherDisplay:10.37,2013-10-17 00:02:00,
2013-10-16 20:03:00,67.2,59.7,30.01,ENE,71,0.0,0.0,77,0.00,CLR,,0.00,WeatherDisplay:10.37,2013-10-17 00:03:00,
2013-10-16 20:05:00,67.3,59.8,30.01,ENE,71,0.0,0.0,77,0.00,CLR,,0.00,WeatherDisplay:10.37,2013-10-17 00:05:00,
2013-10-16 20:06:00,67.4,59.9,30.01,ENE,71,0.0,0.0,77,0.00,CLR,,0.00,WeatherDisplay:10.37,2013-10-17 00:06:00,
2013-10-16 20:08:00,67.1,59.6,30.01,ENE,71,0.0,0.0,77,0.00,CLR,,0.00,WeatherDisplay:10.37,2013-10-17 00:08:00,
2013-10-16 20:10:00,67.4,59.9,30.02,ENE,71,0.0,0.0,77,0.00,CLR,,0.00,WeatherDisplay:10.37,2013-10-17 00:10:00,
2013-10-16 20:11:00,67.0,59.5,30.02,ENE,71,0.0,0.0,77,0.00,CLR,,0.00,WeatherDisplay:10.37,2013-10-17 00:11:00,
2013-10-16 20:13:00,67.3,59.8,30.02,ENE,71,0.0,0.0,77,0.00,CLR,,0.00,WeatherDisplay:10.37,2013-10-17 00:13:00,
2013-10-16 20:14:00,66.9,59.5,30.02,ENE,71,0.0,0.0,77,0.00,CLR,,0.00,WeatherDisplay:10.37,2013-10-17 00:14:00,
2013-10-16 20:15:00,67.0,59.5,30.01,ENE,71,0.0,0.0,77,0.00,CLR,,0.00,WeatherDisplay:10.37,2013-10-17 00:15:00,
2013-10-16 20:16:00,67.0,59.5,30.01,ENE,71,0.0,0.0,77,0.00,CLR,,0.00,WeatherDisplay:10.37,2013-10-17 00:16:00,
2013-10-16 20:18:00,66.8,59.4,30.01,ENE,71,0.0,0.0,77,0.00,CLR,,0.00,WeatherDisplay:10.37,2013-10-17 00:18:00,
2013-10-16 20:20:00,67.0,59.9,30.01,ENE,71,0.0,0.0,78,0.00,CLR,,0.00,WeatherDisplay:10.37,2013-10-17 00:20:00,
2013-10-16 20:21:00,67.1,60.0,30.01,ENE,71,0.0,0.0,78,0.00,CLR,,0.00,WeatherDisplay:10.37,2013-10-17 00:21:00,
2013-10-16 20:23:00,66.6,59.5,30.02,ENE,71,0.0,0.0,78,0.00,CLR,,0.00,WeatherDisplay:10.37,2013-10-17 00:23:00,
2013-10-16 20:25:00,66.8,59.7,30.02,ENE,71,0.0,0.0,78,0.00,CLR,,0.00,WeatherDisplay:10.37,2013-10-17 00:25:00,
2013-10-16 20:26:00,66.8,59.7,30.02,ENE,71,0.0,0.0,78,0.00,CLR,,0.00,WeatherDisplay:10.37,2013-10-17 00:26:00,
2013-10-16 20:27:00,66.9,59.8,30.02,ENE,71,0.0,0.0,78,0.00,CLR,,0.00,WeatherDisplay:10.37,2013-10-17 00:27:00,
2013-10-16 20:28:00,66.7,59.6,30.02,ENE,71,0.0,0.0,78,0.00,CLR,,0.00,WeatherDisplay:10.37,2013-10-17 00:28:00,
2013-10-16 20:29:00,67.1,60.0,30.02,ENE,71,0.0,0.0,78,0.00,CLR,,0.00,WeatherDisplay:10.37,2013-10-17 00:29:00,
2013-10-16 20:30:00,66.9,59.8,30.02,ENE,71,0.0,0.0,78,0.00,CLR,,0.00,WeatherDisplay:10.37,2013-10-17 00:30:00,
2013-10-16 20:31:00,66.9,59.8,30.02,ENE,71,0.0,0.0,78,0.00,CLR,,0.00,WeatherDisplay:10.37,2013-10-17 00:31:00,
2013-10-16 20:32:00,66.7,59.6,30.01,ENE,71,0.0,0.0,78,0.00,CLR,,0.00,WeatherDisplay:10.37,2013-10-17 00:32:00,
2013-10-16 20:33:00,66.7,60.0,30.01,ENE,71,0.0,0.0,79,0.00,CLR,,0.00,WeatherDisplay:10.37,2013-10-17 00:33:00,
2013-10-16 20:35:00,66.8,60.1,30.01,ENE,71,0.0,0.0,79,0.00,CLR,,0.00,WeatherDisplay:10.37,2013-10-17 00:35:00,
2013-10-16 20:36:00,66.4,59.7,30.01,ENE,71,0.0,0.0,79,0.00,CLR,,0.00,WeatherDisplay:10.37,2013-10-17 00:36:00,
2013-10-16 20:37:00,66.8,60.1,30.01,ENE,71,0.0,0.0,79,0.00,CLR,,0.00,WeatherDisplay:10.37,2013-10-17 00:37:00,
2013-10-16 20:38:00,66.9,60.2,30.01,ENE,71,0.0,0.0,79,0.00,CLR,,0.00,WeatherDisplay:10.37,2013-10-17 00:38:00,
2013-10-16 20:41:00,66.5,59.8,30.01,ENE,71,0.0,0.0,79,0.00,CLR,,0.00,WeatherDisplay:10.37,2013-10-17 00:41:00,
2013-10-16 20:42:00,66.4,59.7,30.01,ENE,71,0.0,0.0,79,0.00,CLR,,0.00,WeatherDisplay:10.37,2013-10-17 00:42:00,
2013-10-16 20:43:00,66.3,59.6,30.01,ENE,71,0.0,0.0,79,0.00,CLR,,0.00,WeatherDisplay:10.37,2013-10-17 00:43:00,
2013-10-16 20:46:00,66.3,59.6,30.01,ENE,71,0.0,0.0,79,0.00,CLR,,0.00,WeatherDisplay:10.37,2013-10-17 00:46:00,
2013-10-16 20:47:00,66.4,59.7,30.01,ENE,71,0.0,0.0,79,0.00,CLR,,0.00,WeatherDisplay:10.37,2013-10-17 00:47:00,
2013-10-16 20:48:00,66.2,59.5,30.01,ENE,71,0.0,0.0,79,0.00,CLR,,0.00,WeatherDisplay:10.37,2013-10-17 00:48:00,
2013-10-16 20:51:00,66.8,60.1,30.01,ENE,71,0.0,0.0,79,0.00,CLR,,0.00,WeatherDisplay:10.37,2013-10-17 00:51:00,
2013-10-16 20:52:00,66.4,59.7,30.01,ENE,71,0.0,0.0,79,0.00,CLR,,0.00,WeatherDisplay:10.37,2013-10-17 00:52:00,
2013-10-16 20:53:00,66.3,59.6,30.01,ENE,71,0.0,0.0,79,0.00,CLR,,0.00,WeatherDisplay:10.37,2013-10-17 00:53:00,
2013-10-16 20:54:00,66.3,59.6,30.01,ENE,71,0.0,0.0,79,0.00,CLR,,0.00,WeatherDisplay:10.37,2013-10-17 00:54:00,
2013-10-16 20:56:00,66.7,60.0,30.01,ENE,71,0.0,0.0,79,0.00,CLR,,0.00,WeatherDisplay:10.37,2013-10-17 00:56:00,
2013-10-16 20:57:00,66.7,60.0,30.01,ENE,71,0.0,0.0,79,0.00,CLR,,0.00,WeatherDisplay:10.37,2013-10-17 00:57:00,
2013-10-16 20:58:00,66.3,59.6,30.01,ENE,71,0.0,0.0,79,0.00,CLR,,0.00,WeatherDisplay:10.37,2013-10-17 00:58:00,
2013-10-16 20:59:00,66.4,59.7,30.01,ENE,71,0.0,0.0,79,0.00,CLR,,0.00,WeatherDisplay:10.37,2013-10-17 00:59:00,
2013-10-16 21:01:00,66.4,59.7,30.01,ENE,71,0.0,0.0,79,0.00,CLR,,0.00,WeatherDisplay:10.37,2013-10-17 01:01:00,
2013-10-16 21:02:00,66.4,59.7,30.01,ENE,71,0.0,0.0,79,0.00,CLR,,0.00,WeatherDisplay:10.37,2013-10-17 01:02:00,
2013-10-16 21:03:00,66.5,60.1,30.01,ENE,71,0.0,0.0,80,0.00,CLR,,0.00,WeatherDisplay:10.37,2013-10-17 01:03:00,
2013-10-16 21:04:00,66.1,59.7,30.01,ENE,71,0.0,0.0,80,0.00,CLR,,0.00,WeatherDisplay:10.37,2013-10-17 01:04:00,
2013-10-16 21:06:00,66.4,60.0,30.01,ENE,71,0.0,0.0,80,0.00,CLR,,0.00,WeatherDisplay:10.37,2013-10-17 01:06:00,
2013-10-16 21:07:00,66.3,59.9,30.00,ENE,71,0.0,0.0,80,0.00,CLR,,0.00,WeatherDisplay:10.37,2013-10-17 01:07:00,
2013-10-16 21:08:00,65.9,59.6,30.00,ENE,71,0.0,0.0,80,0.00,CLR,,0.00,WeatherDisplay:10.37,2013-10-17 01:08:00,
2013-10-16 21:09:00,66.1,59.7,30.00,ENE,71,0.0,0.0,80,0.00,CLR,,0.00,WeatherDisplay:10.37,2013-10-17 01:09:00,
2013-10-16 21:11:00,65.9,59.6,30.00,ENE,71,0.0,0.0,80,0.00,CLR,,0.00,WeatherDisplay:10.37,2013-10-17 01:11:00,
2013-10-16 21:12:00,65.9,59.6,30.00,ENE,71,0.0,0.0,80,0.00,CLR,,0.00,WeatherDisplay:10.37,2013-10-17 01:12:00,
2013-10-16 21:14:00,66.1,59.7,30.00,ENE,71,0.0,0.0,80,0.00,CLR,,0.00,WeatherDisplay:10.37,2013-10-17 01:14:00,
2013-10-16 21:15:00,65.8,59.1,30.00,ENE,71,0.0,0.0,79,0.00,CLR,,0.00,WeatherDisplay:10.37,2013-10-17 01:15:00,
2013-10-16 21:16:00,66.2,59.8,30.00,ENE,71,0.0,0.0,80,0.00,CLR,,0.00,WeatherDisplay:10.37,2013-10-17 01:16:00,
2013-10-16 21:17:00,66.1,59.7,30.00,ENE,71,0.0,0.0,80,0.00,CLR,,0.00,WeatherDisplay:10.37,2013-10-17 01:17:00,
2013-10-16 21:19:00,65.9,59.6,30.00,ENE,71,0.0,0.0,80,0.00,CLR,,0.00,WeatherDisplay:10.37,2013-10-17 01:19:00,
2013-10-16 21:20:00,65.9,59.6,30.00,ENE,71,0.0,0.0,80,0.00,CLR,,0.00,WeatherDisplay:10.37,2013-10-17 01:20:00,
2013-10-16 21:21:00,65.7,59.4,30.00,ENE,71,0.0,0.0,80,0.00,CLR,,0.00,WeatherDisplay:10.37,2013-10-17 01:21:00,
2013-10-16 21:22:00,66.1,59.7,30.00,ENE,71,0.0,0.0,80,0.00,CLR,,0.00,WeatherDisplay:10.37,2013-10-17 01:22:00,
2013-10-16 21:24:00,65.4,59.1,30.00,ENE,71,0.0,0.0,80,0.00,CLR,,0.00,WeatherDisplay:10.37,2013-10-17 01:24:00,
2013-10-16 21:25:00,65.8,59.5,30.00,ENE,71,0.0,0.0,80,0.00,CLR,,0.00,WeatherDisplay:10.37,2013-10-17 01:25:00,
2013-10-16 21:26:00,65.7,59.4,30.00,ENE,71,0.0,0.0,80,0.00,CLR,,0.00,WeatherDisplay:10.37,2013-10-17 01:26:00,
2013-10-16 21:27:00,65.6,59.3,30.00,ENE,71,0.0,0.0,80,0.00,CLR,,0.00,WeatherDisplay:10.37,2013-10-17 01:27:00,
2013-10-16 21:29:00,65.7,59.4,30.00,ENE,71,0.0,0.0,80,0.00,CLR,,0.00,WeatherDisplay:10.37,2013-10-17 01:29:00,
2013-10-16 21:30:00,65.3,59.0,30.00,ENE,71,0.0,0.0,80,0.00,CLR,,0.00,WeatherDisplay:10.37,2013-10-17 01:30:00,
2013-10-16 21:31:00,65.7,59.4,30.01,ENE,71,0.0,0.0,80,0.00,CLR,,0.00,WeatherDisplay:10.37,2013-10-17 01:31:00,
2013-10-16 21:33:00,65.6,59.6,30.01,ENE,71,0.0,0.0,81,0.00,CLR,,0.00,WeatherDisplay:10.37,2013-10-17 01:33:00,
2013-10-16 21:34:00,65.6,59.6,30.01,ENE,71,0.0,0.0,81,0.00,CLR,,0.00,WeatherDisplay:10.37,2013-10-17 01:34:00,
2013-10-16 21:35:00,65.4,59.4,30.00,ENE,71,0.0,0.0,81,0.00,CLR,,0.00,WeatherDisplay:10.37,2013-10-17 01:35:00,
2013-10-16 21:36:00,65.4,59.4,30.00,ENE,71,0.0,0.0,81,0.00,CLR,,0.00,WeatherDisplay:10.37,2013-10-17 01:36:00,
2013-10-16 21:37:00,65.4,59.4,30.00,ENE,71,0.0,0.0,81,0.00,CLR,,0.00,WeatherDisplay:10.37,2013-10-17 01:37:00,
2013-10-16 21:38:00,65.5,59.5,30.00,ENE,71,0.0,0.0,81,0.00,CLR,,0.00,WeatherDisplay:10.37,2013-10-17 01:38:00,
2013-10-16 21:40:00,65.5,59.5,30.00,ENE,71,0.0,0.0,81,0.00,CLR,,0.00,WeatherDisplay:10.37,2013-10-17 01:40:00,
2013-10-16 21:42:00,65.5,59.5,30.00,ENE,71,0.0,0.0,81,0.00,CLR,,0.00,WeatherDisplay:10.37,2013-10-17 01:42:00,
2013-10-16 21:43:00,65.1,59.1,30.00,ENE,71,0.0,0.0,81,0.00,CLR,,0.00,WeatherDisplay:10.37,2013-10-17 01:43:00,
2013-10-16 21:45:00,65.1,59.1,30.01,ENE,71,0.0,0.0,81,0.00,CLR,,0.00,WeatherDisplay:10.37,2013-10-17 01:45:00,
2013-10-16 21:47:00,65.3,59.3,30.00,ENE,71,0.0,0.0,81,0.00,CLR,,0.00,WeatherDisplay:10.37,2013-10-17 01:47:00,
2013-10-16 21:48:00,65.4,59.4,30.01,ENE,71,0.0,0.0,81,0.00,CLR,,0.00,WeatherDisplay:10.37,2013-10-17 01:48:00,
2013-10-16 21:50:00,65.1,59.1,30.01,ENE,71,0.0,0.0,81,0.00,CLR,,0.00,WeatherDisplay:10.37,2013-10-17 01:50:00,
2013-10-16 21:52:00,65.1,59.5,30.01,ENE,71,0.0,0.0,82,0.00,CLR,,0.00,WeatherDisplay:10.37,2013-10-17 01:52:00,
2013-10-16 21:53:00,64.9,59.3,30.01,ENE,71,0.0,0.0,82,0.00,CLR,,0.00,WeatherDisplay:10.37,2013-10-17 01:53:00,
2013-10-16 21:55:00,64.8,59.2,30.00,ENE,71,0.0,0.0,82,0.00,CLR,,0.00,WeatherDisplay:10.37,2013-10-17 01:55:00,
2013-10-16 21:56:00,65.0,59.4,30.00,ENE,71,0.0,0.0,82,0.00,CLR,,0.00,WeatherDisplay:10.37,2013-10-17 01:56:00,
2013-10-16 21:57:00,65.2,59.6,30.00,ENE,71,0.0,0.0,82,0.00,CLR,,0.00,WeatherDisplay:10.37,2013-10-17 01:57:00,
2013-10-16 21:58:00,64.8,59.2,30.00,ENE,71,0.0,0.0,82,0.00,CLR,,0.00,WeatherDisplay:10.37,2013-10-17 01:58:00,
2013-10-16 22:01:00,65.0,59.4,30.00,ENE,71,0.0,0.0,82,0.00,CLR,,0.00,WeatherDisplay:10.37,2013-10-17 02:01:00,
2013-10-16 22:02:00,64.5,58.9,30.00,ENE,71,0.0,0.0,82,0.00,CLR,,0.00,WeatherDisplay:10.37,2013-10-17 02:02:00,
2013-10-16 22:03:00,64.8,59.2,30.00,ENE,71,0.0,0.0,82,0.00,CLR,,0.00,WeatherDisplay:10.37,2013-10-17 02:03:00,
2013-10-16 22:04:00,64.8,59.2,30.00,ENE,71,0.0,0.0,82,0.00,CLR,,0.00,WeatherDisplay:10.37,2013-10-17 02:04:00,
2013-10-16 22:06:00,64.7,59.1,30.00,ENE,71,0.0,0.0,82,0.00,CLR,,0.00,WeatherDisplay:10.37,2013-10-17 02:06:00,
2013-10-16 22:07:00,64.8,59.2,30.00,ENE,71,0.0,0.0,82,0.00,CLR,,0.00,WeatherDisplay:10.37,2013-10-17 02:07:00,
2013-10-16 22:08:00,64.8,59.2,30.00,ENE,71,0.0,0.0,82,0.00,CLR,,0.00,WeatherDisplay:10.37,2013-10-17 02:08:00,
2013-10-16 22:09:00,64.8,59.2,30.00,ENE,71,0.0,0.0,82,0.00,CLR,,0.00,WeatherDisplay:10.37,2013-10-17 02:09:00,
2013-10-16 22:11:00,64.7,59.4,30.00,ENE,71,0.0,0.0,83,0.00,CLR,,0.00,WeatherDisplay:10.37,2013-10-17 02:11:00,
2013-10-16 22:12:00,64.7,59.4,30.00,ENE,71,0.0,0.0,83,0.00,CLR,,0.00,WeatherDisplay:10.37,2013-10-17 02:12:00,
2013-10-16 22:13:00,64.4,59.1,30.00,ENE,71,0.0,0.0,83,0.00,CLR,,0.00,WeatherDisplay:10.37,2013-10-17 02:13:00,
2013-10-16 22:14:00,64.9,59.6,30.00,ENE,71,0.0,0.0,83,0.00,CLR,,0.00,WeatherDisplay:10.37,2013-10-17 02:14:00,
2013-10-16 22:15:00,64.4,59.1,30.00,ENE,71,0.0,0.0,83,0.00,CLR,,0.00,WeatherDisplay:10.37,2013-10-17 02:15:00,
2013-10-16 22:16:00,64.5,59.2,30.00,ENE,71,0.0,0.0,83,0.00,CLR,,0.00,WeatherDisplay:10.37,2013-10-17 02:16:00,
2013-10-16 22:17:00,64.5,59.2,30.00,ENE,71,0.0,0.0,83,0.00,CLR,,0.00,WeatherDisplay:10.37,2013-10-17 02:17:00,
2013-10-16 22:18:00,64.3,59.0,30.00,ENE,71,0.0,0.0,83,0.00,CLR,,0.00,WeatherDisplay:10.37,2013-10-17 02:18:00,
2013-10-16 22:19:00,64.4,59.1,30.01,ENE,71,0.0,0.0,83,0.00,CLR,,0.00,WeatherDisplay:10.37,2013-10-17 02:19:00,
2013-10-16 22:21:00,64.3,59.0,30.01,ENE,71,0.0,0.0,83,0.00,CLR,,0.00,WeatherDisplay:10.37,2013-10-17 02:21:00,
2013-10-16 22:23:00,64.8,59.5,30.01,ENE,71,0.0,0.0,83,0.00,CLR,,0.00,WeatherDisplay:10.37,2013-10-17 02:23:00,
2013-10-16 22:24:00,64.6,59.3,30.00,ENE,71,0.0,0.0,83,0.00,CLR,,0.00,WeatherDisplay:10.37,2013-10-17 02:24:00,
2013-10-16 22:26:00,64.1,59.2,30.00,ENE,71,0.0,0.0,84,0.00,CLR,,0.00,WeatherDisplay:10.37,2013-10-17 02:26:00,
2013-10-16 22:27:00,64.4,59.5,30.00,ENE,71,0.0,0.0,84,0.00,CLR,,0.00,WeatherDisplay:10.37,2013-10-17 02:27:00,
2013-10-16 22:28:00,64.5,59.6,30.00,North,3,0.0,0.0,84,0.00,CLR,,0.00,WeatherDisplay:10.37,2013-10-17 02:28:00,
2013-10-16 22:29:00,63.9,59.0,30.00,North,3,0.0,0.0,84,0.00,CLR,,0.00,WeatherDisplay:10.37,2013-10-17 02:29:00,
2013-10-16 22:30:00,64.0,59.1,30.00,North,3,0.0,0.0,84,0.00,CLR,,0.00,WeatherDisplay:10.37,2013-10-17 02:30:00,
2013-10-16 22:32:00,64.1,59.2,30.00,North,3,0.0,0.0,84,0.00,CLR,,0.00,WeatherDisplay:10.37,2013-10-17 02:32:00,
2013-10-16 22:34:00,64.0,59.1,30.00,North,3,0.0,0.0,84,0.00,CLR,,0.00,WeatherDisplay:10.37,2013-10-17 02:34:00,
2013-10-16 22:35:00,64.2,59.3,30.00,North,3,0.0,0.0,84,0.00,CLR,,0.00,WeatherDisplay:10.37,2013-10-17 02:35:00,
2013-10-16 22:37:00,64.4,59.5,30.00,North,3,0.0,0.0,84,0.00,CLR,,0.00,WeatherDisplay:10.37,2013-10-17 02:37:00,
2013-10-16 22:39:00,64.1,59.2,30.01,North,3,0.0,0.0,84,0.00,CLR,,0.00,WeatherDisplay:10.37,2013-10-17 02:39:00,
2013-10-16 22:40:00,64.0,59.1,30.01,North,3,0.0,0.0,84,0.00,CLR,,0.00,WeatherDisplay:10.37,2013-10-17 02:40:00,
2013-10-16 22:42:00,64.1,59.2,30.01,North,3,0.0,0.0,84,0.00,CLR,,0.00,WeatherDisplay:10.37,2013-10-17 02:42:00,
2013-10-16 22:44:00,63.9,59.0,30.01,North,3,0.0,0.0,84,0.00,CLR,,0.00,WeatherDisplay:10.37,2013-10-17 02:44:00,
2013-10-16 22:45:00,63.8,59.2,30.01,North,3,0.0,0.0,85,0.00,CLR,,0.00,WeatherDisplay:10.37,2013-10-17 02:45:00,
2013-10-16 22:47:00,63.8,59.2,30.01,North,3,0.0,0.0,85,0.00,CLR,,0.00,WeatherDisplay:10.37,2013-10-17 02:47:00,
2013-10-16 22:49:00,63.7,59.1,30.01,North,3,0.0,0.0,85,0.00,CLR,,0.00,WeatherDisplay:10.37,2013-10-17 02:49:00,
2013-10-16 22:50:00,63.8,59.2,30.00,North,3,0.0,0.0,85,0.00,CLR,,0.00,WeatherDisplay:10.37,2013-10-17 02:50:00,
2013-10-16 22:51:00,63.5,58.9,30.00,North,3,0.0,0.0,85,0.00,CLR,,0.00,WeatherDisplay:10.37,2013-10-17 02:51:00,
2013-10-16 22:52:00,63.5,58.9,30.00,North,3,0.0,0.0,85,0.00,CLR,,0.00,WeatherDisplay:10.37,2013-10-17 02:52:00,
2013-10-16 22:53:00,63.9,59.3,30.00,North,3,0.0,0.0,85,0.00,CLR,,0.00,WeatherDisplay:10.37,2013-10-17 02:53:00,
2013-10-16 22:55:00,63.4,58.8,30.01,North,3,0.0,0.0,85,0.00,CLR,,0.00,WeatherDisplay:10.37,2013-10-17 02:55:00,
2013-10-16 22:56:00,63.7,59.1,30.00,North,3,0.0,0.0,85,0.00,CLR,,0.00,WeatherDisplay:10.37,2013-10-17 02:56:00,
2013-10-16 22:57:00,63.5,58.9,30.01,North,3,0.0,0.0,85,0.00,CLR,,0.00,WeatherDisplay:10.37,2013-10-17 02:57:00,
2013-10-16 22:58:00,63.5,58.9,30.01,North,3,0.0,0.0,85,0.00,CLR,,0.00,WeatherDisplay:10.37,2013-10-17 02:58:00,
2013-10-16 23:00:00,63.6,59.3,30.01,North,3,0.0,0.0,86,0.00,CLR,,0.00,WeatherDisplay:10.37,2013-10-17 03:00:00,
2013-10-16 23:01:00,63.9,59.6,30.01,North,3,0.0,0.0,86,0.00,CLR,,0.00,WeatherDisplay:10.37,2013-10-17 03:01:00,
2013-10-16 23:03:00,63.6,59.3,30.01,North,3,0.0,0.0,86,0.00,CLR,,0.00,WeatherDisplay:10.37,2013-10-17 03:03:00,
2013-10-16 23:04:00,63.8,59.5,30.01,North,3,0.0,0.0,86,0.00,CLR,,0.00,WeatherDisplay:10.37,2013-10-17 03:04:00,
2013-10-16 23:05:00,63.8,59.5,30.01,North,3,0.0,0.0,86,0.00,CLR,,0.00,WeatherDisplay:10.37,2013-10-17 03:05:00,
2013-10-16 23:06:00,63.7,59.4,30.01,North,3,0.0,0.0,86,0.00,CLR,,0.00,WeatherDisplay:10.37,2013-10-17 03:06:00,
2013-10-16 23:08:00,64.0,59.7,30.00,North,3,0.0,0.0,86,0.00,CLR,,0.00,WeatherDisplay:10.37,2013-10-17 03:08:00,
2013-10-16 23:09:00,63.6,59.3,30.00,North,3,0.0,0.0,86,0.00,CLR,,0.00,WeatherDisplay:10.37,2013-10-17 03:09:00,
2013-10-16 23:10:00,63.8,59.5,30.01,North,3,0.0,0.0,86,0.00,CLR,,0.00,WeatherDisplay:10.37,2013-10-17 03:10:00,
2013-10-16 23:11:00,63.5,59.2,30.00,North,3,0.0,0.0,86,0.00,CLR,,0.00,WeatherDisplay:10.37,2013-10-17 03:11:00,
2013-10-16 23:14:00,63.9,59.6,30.00,North,3,0.0,0.0,86,0.00,CLR,,0.00,WeatherDisplay:10.37,2013-10-17 03:14:00,
2013-10-16 23:15:00,64.0,59.7,30.00,North,3,0.0,0.0,86,0.00,CLR,,0.00,WeatherDisplay:10.37,2013-10-17 03:15:00,
2013-10-16 23:16:00,63.7,59.4,30.00,North,3,0.0,0.0,86,0.00,CLR,,0.00,WeatherDisplay:10.37,2013-10-17 03:16:00,
2013-10-16 23:19:00,63.9,59.3,30.00,North,3,0.0,0.0,85,0.00,CLR,,0.00,WeatherDisplay:10.37,2013-10-17 03:19:00,
2013-10-16 23:20:00,63.9,59.3,30.00,North,3,0.0,0.0,85,0.00,CLR,,0.00,WeatherDisplay:10.37,2013-10-17 03:20:00,
2013-10-16 23:21:00,63.8,59.2,30.00,North,3,0.0,0.0,85,0.00,CLR,,0.00,WeatherDisplay:10.37,2013-10-17 03:21:00,
2013-10-16 23:24:00,63.8,59.5,30.00,North,3,0.0,0.0,86,0.00,CLR,,0.00,WeatherDisplay:10.37,2013-10-17 03:24:00,
2013-10-16 23:25:00,63.7,59.4,30.00,North,3,0.0,0.0,86,0.00,CLR,,0.00,WeatherDisplay:10.37,2013-10-17 03:25:00,
2013-10-16 23:26:00,63.7,59.4,30.00,North,3,0.0,0.0,86,0.00,CLR,,0.00,WeatherDisplay:10.37,2013-10-17 03:26:00,
2013-10-16 23:28:00,64.2,59.9,30.00,North,3,0.0,0.0,86,0.00,CLR,,0.00,WeatherDisplay:10.37,2013-10-17 03:28:00,
2013-10-16 23:29:00,63.8,59.5,30.00,North,3,0.0,0.0,86,0.00,CLR,,0.00,WeatherDisplay:10.37,2013-10-17 03:29:00,
2013-10-16 23:30:00,64.0,59.7,30.00,North,3,0.0,0.0,86,0.00,CLR,,0.00,WeatherDisplay:10.37,2013-10-17 03:30:00,
2013-10-16 23:31:00,63.5,59.2,30.00,North,3,0.0,0.0,86,0.00,CLR,,0.00,WeatherDisplay:10.37,2013-10-17 03:31:00,
2013-10-16 23:32:00,63.7,59.4,30.00,North,3,0.0,0.0,86,0.00,CLR,,0.00,WeatherDisplay:10.37,2013-10-17 03:32:00,
2013-10-16 23:33:00,63.6,59.3,30.00,North,3,0.0,0.0,86,0.00,CLR,,0.00,WeatherDisplay:10.37,2013-10-17 03:33:00,
2013-10-16 23:34:00,63.2,58.9,30.00,North,3,0.0,0.0,86,0.00,CLR,,0.00,WeatherDisplay:10.37,2013-10-17 03:34:00,
2013-10-16 23:35:00,63.4,59.1,29.99,North,3,0.0,0.0,86,0.00,CLR,,0.00,WeatherDisplay:10.37,2013-10-17 03:35:00,
2013-10-16 23:36:00,63.6,59.3,30.00,North,3,0.0,0.0,86,0.00,CLR,,0.00,WeatherDisplay:10.37,2013-10-17 03:36:00,
2013-10-16 23:37:00,63.8,59.5,29.99,North,3,0.0,0.0,86,0.00,CLR,,0.00,WeatherDisplay:10.37,2013-10-17 03:37:00,
2013-10-16 23:39:00,63.3,59.0,29.99,North,3,0.0,0.0,86,0.00,CLR,,0.00,WeatherDisplay:10.37,2013-10-17 03:39:00,
2013-10-16 23:40:00,63.5,59.2,29.99,North,3,0.0,0.0,86,0.00,CLR,,0.00,WeatherDisplay:10.37,2013-10-17 03:40:00,
2013-10-16 23:41:00,63.1,58.8,29.99,North,3,0.0,0.0,86,0.00,CLR,,0.00,WeatherDisplay:10.37,2013-10-17 03:41:00,
2013-10-16 23:42:00,63.4,59.1,29.99,North,3,0.0,0.0,86,0.00,CLR,,0.00,WeatherDisplay:10.37,2013-10-17 03:42:00,
2013-10-16 23:44:00,63.5,59.2,29.99,North,3,0.0,0.0,86,0.00,CLR,,0.00,WeatherDisplay:10.37,2013-10-17 03:44:00,
2013-10-16 23:45:00,63.2,58.9,29.99,North,3,0.0,0.0,86,0.00,CLR,,0.00,WeatherDisplay:10.37,2013-10-17 03:45:00,
2013-10-16 23:46:00,63.4,59.1,29.99,North,3,0.0,0.0,86,0.00,CLR,,0.00,WeatherDisplay:10.37,2013-10-17 03:46:00,
2013-10-16 23:47:00,63.4,59.1,29.99,North,3,0.0,0.0,86,0.00,CLR,,0.00,WeatherDisplay:10.37,2013-10-17 03:47:00,
2013-10-16 23:50:00,63.2,59.3,29.99,North,3,0.0,0.0,87,0.00,CLR,,0.00,WeatherDisplay:10.37,2013-10-17 03:50:00,
2013-10-16 23:51:00,63.0,59.1,29.99,North,3,0.0,0.0,87,0.00,CLR,,0.00,WeatherDisplay:10.37,2013-10-17 03:51:00,
2013-10-16 23:52:00,63.3,59.4,29.99,North,3,0.0,0.0,87,0.00,CLR,,0.00,WeatherDisplay:10.37,2013-10-17 03:52:00,
2013-10-16 23:55:00,63.0,59.1,29.99,North,3,0.0,0.0,87,0.00,CLR,,0.00,WeatherDisplay:10.37,2013-10-17 03:55:00,
2013-10-16 23:56:00,62.9,59.0,29.99,North,3,0.0,0.0,87,0.00,CLR,,0.00,WeatherDisplay:10.37,2013-10-17 03:56:00,
2013-10-16 23:57:00,63.6,59.7,29.99,North,3,0.0,0.0,87,0.00,CLR,,0.00,WeatherDisplay:10.37,2013-10-17 03:57:00,
2013-10-16 23:58:00,63.1,59.2,29.99,North,3,0.0,0.0,87,0.00,CLR,,0.00,WeatherDisplay:10.37,2013-10-17 03:58:00,